[{"header": {"dx": 0.06612293990616946, "dy": 0.0552356325346848, "nx": 98, "ny": 59, "la1": 35.046912555036876, "la2": 31.78801023549047, "lo1": -121.43107172385933, "lo2": -114.95102361305473, "refTime": "2026041221", "parameterCategory": 1, "parameterNumber": 2}, "data": [13.39, 13.39, 13.39, 13.82, 13.82, 13.32, 13.32, 13.75, 13.94, 14.37, 13.5, 11.76, 11.84, 11.0, 10.12, 10.56, 10.96, 9.85, 10.41, 10.27, 10.27, 10.68, 9.96, 10.08, 10.92, 11.21, 11.2, 10.73, 10.99, 10.43, 10.81, 10.99, 10.6, 10.2, 10.32, 10.89, 11.15, 9.35, 6.99, 6.01, 8.38, 10.27, 11.46, 12.96, 12.79, 11.87, 12.33, 12.42, 11.05, 10.22, 9.11, 8.99, 8.99, 9.77, 10.65, 11.47, 12.57, 12.98, 13.02, 13.02, 13.02, 13.03, 13.25, 13.59, 13.03, 12.4, 11.86, 12.29, 12.3, 12.73, 13.82, 14.19, 13.11, 13.54, 13.16, 13.02, 12.56, 12.14, 13.39, 11.71, 11.28, 9.3, 10.41, 10.73, 10.04, 9.92, 10.28, 9.75, 8.07, 7.18, 6.96, 6.76, 5.8, 6.21, 6.42, 7.69, 8.61, 9.69, 13.59, 13.59, 13.59, 13.59, 14.03, 13.99, 13.99, 13.99, 14.37, 14.37, 13.01, 13.15, 11.4, 10.56, 11.53, 11.09, 10.08, 11.28, 10.75, 9.4, 11.09, 10.68, 10.68, 11.09, 10.18, 10.62, 11.03, 9.97, 10.18, 10.12, 10.73, 11.3, 11.07, 9.76, 10.0, 9.66, 7.85, 8.49, 0.0, 0.0, 7.24, 12.71, 12.96, 12.5, 12.29, 12.38, 12.71, 11.84, 10.22, 8.84, 9.11, 9.39, 10.18, 10.37, 11.11, 12.22, 12.62, 13.39, 13.02, 13.02, 13.02, 13.25, 12.86, 12.65, 11.68, 11.06, 11.06, 10.84, 11.54, 12.22, 13.7, 14.06, 14.19, 13.54, 13.41, 13.37, 12.87, 12.14, 13.39, 11.71, 11.28, 9.3, 10.41, 10.73, 10.04, 9.92, 10.28, 9.75, 8.07, 7.18, 6.96, 6.76, 5.8, 6.21, 6.42, 7.69, 8.61, 9.69, 13.59, 13.59, 13.59, 13.59, 14.03, 14.42, 14.42, 14.6, 15.02, 14.58, 12.35, 11.91, 11.88, 11.44, 10.56, 10.56, 10.96, 11.4, 10.7, 11.61, 10.18, 10.75, 10.27, 11.92, 12.33, 10.8, 10.55, 9.58, 8.79, 8.69, 9.8, 9.91, 9.92, 10.43, 9.08, 8.93, 7.68, 8.91, 9.83, 10.0, 12.52, 12.39, 12.03, 11.32, 12.59, 13.29, 13.29, 10.68, 9.24, 9.53, 9.67, 10.18, 10.31, 11.17, 11.15, 12.62, 12.62, 12.98, 12.98, 13.02, 12.65, 13.25, 12.65, 11.33, 10.22, 9.53, 10.75, 11.47, 12.5, 12.84, 13.59, 14.13, 14.95, 14.75, 13.37, 13.81, 13.65, 13.15, 13.44, 11.88, 11.46, 10.6, 10.73, 10.41, 9.85, 10.22, 9.75, 7.81, 7.14, 6.96, 6.98, 6.98, 6.42, 5.55, 6.67, 7.96, 9.69, 10.23, 13.59, 13.59, 14.03, 13.59, 14.18, 14.6, 15.05, 15.05, 15.02, 14.14, 12.35, 12.03, 12.02, 11.0, 11.0, 11.0, 11.57, 12.01, 11.4, 11.4, 10.52, 10.62, 11.46, 11.03, 10.55, 11.26, 10.04, 9.67, 8.15, 7.9, 6.94, 6.2, 7.73, 9.88, 9.8, 8.53, 7.82, 9.66, 9.67, 10.3, 10.6, 11.73, 12.17, 12.33, 11.73, 11.7, 9.67, 9.67, 9.53, 9.53, 10.04, 10.75, 10.75, 10.84, 11.54, 11.95, 12.62, 12.62, 12.62, 13.02, 12.65, 12.65, 11.33, 9.92, 8.72, 9.67, 10.83, 11.31, 12.37, 13.05, 13.88, 14.4, 14.99, 15.59, 15.07, 14.08, 13.44, 13.18, 15.3, 12.88, 11.62, 11.62, 10.6, 10.41, 10.73, 9.86, 6.98, 6.2, 6.44, 7.68, 8.43, 7.44, 6.21, 5.6, 6.94, 9.17, 10.23, 9.76, 13.59, 13.59, 14.18, 14.18, 14.18, 14.6, 15.05, 15.05, 15.15, 14.26, 12.47, 11.58, 11.57, 11.12, 10.68, 11.57, 11.57, 12.01, 12.07, 12.01, 12.39, 11.06, 10.58, 11.84, 9.7, 10.04, 9.62, 9.62, 8.85, 5.52, 3.77, 4.15, 5.98, 8.53, 9.8, 9.31, 8.57, 10.86, 12.35, 11.25, 10.32, 9.36, 9.62, 10.12, 10.43, 9.92, 10.22, 9.97, 9.97, 10.43, 10.43, 10.87, 10.87, 10.84, 11.54, 11.54, 11.95, 12.62, 12.62, 12.65, 12.41, 11.69, 9.62, 7.89, 8.43, 9.92, 10.71, 11.48, 13.37, 14.15, 13.85, 14.26, 14.26, 16.61, 16.84, 14.31, 13.74, 12.85, 14.69, 13.86, 9.67, 8.22, 10.0, 10.14, 9.58, 5.92, 5.4, 6.67, 6.42, 8.68, 8.15, 6.72, 5.6, 6.08, 8.24, 10.23, 11.16, 9.48, 13.74, 13.74, 14.18, 14.18, 14.18, 14.71, 15.16, 15.16, 15.15, 14.26, 12.03, 11.62, 11.18, 10.73, 11.18, 11.18, 11.62, 12.07, 12.07, 12.52, 12.52, 11.78, 12.3, 11.12, 9.77, 9.77, 9.62, 8.3, 6.94, 5.4, 3.87, 5.46, 7.9, 10.24, 10.02, 8.67, 9.48, 10.73, 13.76, 9.71, 5.98, 6.4, 9.57, 10.75, 10.22, 10.02, 10.3, 10.52, 10.75, 10.12, 10.65, 10.54, 10.54, 10.43, 11.17, 11.54, 11.54, 11.95, 12.65, 12.0, 11.34, 9.32, 6.88, 7.45, 8.03, 9.92, 11.08, 11.9, 13.28, 15.18, 16.31, 14.51, 14.64, 15.19, 16.6, 16.61, 15.05, 13.81, 12.52, 12.27, 4.8, 5.75, 9.2, 9.6, 4.4, 4.32, 5.8, 6.85, 8.16, 9.06, 8.49, 6.96, 6.3, 8.15, 10.37, 11.53, 10.43, 9.13, 13.74, 13.74, 13.74, 14.18, 14.72, 15.16, 15.16, 15.16, 15.15, 13.41, 11.62, 11.62, 10.73, 10.28, 11.62, 11.18, 12.07, 12.52, 12.52, 12.52, 12.96, 14.19, 14.31, 12.37, 10.43, 10.12, 10.75, 9.16, 7.79, 6.71, 6.7, 5.86, 7.68, 8.03, 7.65, 8.66, 10.12, 10.94, 10.18, 6.65, 2.81, 5.8, 8.05, 7.82, 9.12, 9.73, 11.18, 11.13, 10.75, 11.1, 10.12, 9.8, 10.12, 10.12, 10.84, 11.6, 11.6, 11.64, 12.03, 10.98, 8.21, 6.15, 5.73, 6.54, 8.25, 10.47, 12.23, 12.01, 12.42, 15.27, 16.37, 15.24, 14.24, 16.53, 15.79, 16.33, 15.87, 14.75, 13.41, 10.37, 4.15, 6.21, 11.62, 3.19, 3.34, 4.12, 6.4, 8.97, 9.34, 9.02, 8.42, 7.82, 7.78, 9.17, 11.37, 11.09, 9.13, 7.69, 13.29, 13.83, 14.27, 14.72, 15.17, 15.17, 15.2, 15.2, 14.75, 12.96, 11.18, 11.18, 10.28, 11.18, 12.52, 11.18, 12.07, 12.96, 12.96, 12.96, 13.41, 13.41, 13.41, 14.84, 13.02, 11.52, 10.75, 9.77, 8.18, 8.59, 7.54, 6.21, 4.65, 5.6, 6.86, 8.32, 10.62, 9.05, 9.46, 5.98, 2.54, 4.38, 8.93, 10.13, 9.66, 9.42, 9.62, 11.06, 10.19, 10.6, 9.48, 10.12, 10.12, 10.12, 10.92, 10.92, 10.98, 11.03, 10.37, 8.37, 5.0, 4.24, 5.06, 6.54, 8.61, 10.59, 13.04, 13.18, 13.63, 14.46, 16.89, 15.94, 15.08, 16.1, 15.38, 15.08, 16.04, 14.75, 12.87, 7.78, 6.7, 10.8, 1.91, 2.28, 4.12, 6.21, 7.44, 8.94, 9.48, 9.59, 9.34, 8.85, 9.17, 10.91, 11.44, 10.43, 8.51, 7.2, 13.83, 14.27, 14.27, 14.72, 15.17, 15.2, 15.2, 15.2, 14.3, 12.52, 11.18, 10.68, 12.96, 12.96, 12.52, 12.52, 12.96, 12.96, 13.41, 12.83, 13.15, 13.41, 13.41, 14.3, 11.62, 10.4, 6.95, 8.05, 12.22, 9.8, 8.66, 4.81, 4.81, 7.69, 8.53, 9.67, 10.18, 9.96, 8.82, 7.59, 5.6, 7.93, 9.16, 8.44, 7.85, 8.22, 8.83, 9.71, 9.81, 10.08, 10.05, 9.16, 9.97, 10.12, 10.22, 9.89, 9.96, 9.34, 8.69, 5.98, 3.32, 4.27, 5.91, 7.74, 9.62, 11.9, 13.8, 14.51, 14.79, 15.35, 15.78, 16.82, 16.51, 15.2, 14.3, 14.75, 14.75, 13.67, 11.53, 15.69, 11.06, 3.04, 2.37, 3.97, 5.78, 7.36, 7.93, 9.17, 9.62, 9.92, 10.18, 10.24, 9.82, 10.86, 11.03, 9.5, 7.69, 7.2, 14.27, 14.27, 14.72, 14.75, 15.2, 15.2, 15.2, 15.2, 14.3, 12.48, 11.58, 12.03, 12.03, 13.82, 13.86, 13.41, 14.3, 14.66, 14.11, 12.3, 12.27, 12.71, 13.59, 13.88, 12.39, 8.94, 6.32, 7.59, 10.43, 10.12, 8.94, 5.98, 7.82, 8.38, 10.04, 9.32, 9.55, 8.05, 8.22, 8.1, 8.54, 9.17, 8.69, 8.02, 8.02, 7.72, 8.53, 8.21, 9.27, 9.25, 9.67, 9.94, 10.11, 10.27, 9.97, 9.67, 10.12, 9.17, 6.45, 2.82, 3.47, 4.31, 6.42, 7.95, 9.88, 12.2, 14.2, 14.95, 14.68, 15.08, 15.55, 15.62, 16.09, 14.75, 14.27, 13.77, 12.58, 12.52, 12.96, 6.6, 7.08, 6.19, 4.1, 5.6, 7.62, 8.42, 8.85, 9.92, 10.15, 10.23, 10.8, 10.09, 9.62, 9.8, 10.43, 8.78, 8.15, 7.89, 14.3, 14.3, 14.75, 14.75, 14.75, 15.2, 15.2, 14.75, 13.82, 12.48, 12.48, 12.79, 13.25, 13.7, 14.23, 14.3, 16.09, 15.15, 14.86, 15.74, 17.15, 17.02, 16.12, 13.56, 13.7, 10.8, 8.23, 7.27, 8.1, 10.12, 10.47, 9.17, 8.22, 10.68, 11.03, 10.68, 9.3, 7.9, 8.22, 10.36, 11.29, 10.59, 9.53, 8.93, 7.59, 7.06, 7.42, 7.54, 7.78, 8.45, 9.52, 9.88, 10.13, 9.67, 8.2, 8.16, 9.29, 8.67, 4.48, 1.83, 2.65, 5.27, 7.44, 8.37, 9.96, 12.22, 14.32, 14.42, 13.88, 13.41, 13.56, 13.75, 14.58, 14.3, 13.75, 6.4, 12.96, -0.0, 4.66, 4.81, 7.0, 9.17, 8.91, 8.58, 8.87, 9.17, 9.9, 10.53, 10.8, 11.14, 10.62, 9.27, 8.44, 9.21, 9.27, 8.78, 7.44, 8.49, 14.3, 14.3, 14.3, 14.75, 14.75, 14.75, 15.2, 14.71, 13.82, 12.93, 12.93, 13.25, 13.94, 13.94, 13.07, 12.39, 12.52, 14.3, 15.62, 16.87, 15.98, 15.53, 15.49, 15.97, 12.72, 12.04, 10.73, 6.32, 8.93, 8.0, 8.8, 9.6, 9.86, 9.11, 10.22, 10.04, 9.2, 9.67, 10.04, 11.5, 11.35, 11.35, 9.42, 8.22, 7.27, 5.63, 5.77, 5.6, 6.63, 6.51, 6.94, 8.61, 8.4, 7.11, 6.06, 5.78, 8.32, 9.56, 5.14, -0.0, 1.73, 5.16, 7.11, 7.26, 9.12, 10.58, 12.84, 13.41, 12.21, 11.4, 11.37, 12.48, 12.65, 13.41, 0.0, -12.72, -4.24, 4.05, 7.28, 8.18, 9.2, 10.19, 10.59, 10.3, 10.92, 12.56, 12.37, 11.64, 11.77, 11.39, 10.24, 8.53, 7.68, 8.38, 8.21, 8.49, 8.49, 8.67, 14.3, 14.3, 14.3, 14.75, 14.75, 14.75, 14.72, 14.27, 14.27, 13.37, 13.25, 13.7, 13.94, 14.37, 14.81, 14.86, 13.74, 12.94, 12.5, 12.96, 13.41, 12.96, 12.96, 12.96, 12.92, 12.14, 11.55, 11.68, 10.6, 8.82, 9.64, 10.7, 10.91, 10.66, 10.22, 9.6, 9.42, 10.0, 10.0, 9.97, 10.25, 9.69, 9.08, 6.98, 5.06, 4.23, 4.08, 5.4, 5.4, 5.6, 5.51, 6.21, 4.87, 3.3, 2.45, 3.56, 6.64, 11.69, 7.15, -0.0, -0.0, 5.25, 6.9, 6.47, 6.64, 7.75, 9.87, 10.12, 10.8, 12.51, 14.35, 13.36, 12.8, 14.3, -8.22, -7.44, 3.07, 7.84, 9.67, 10.18, 10.31, 11.53, 11.06, 12.3, 12.15, 12.65, 13.97, 13.39, 13.2, 12.5, 10.77, 8.32, 7.54, 7.82, 8.37, 8.67, 8.67, 8.67, 14.3, 14.3, 14.3, 14.3, 14.72, 14.72, 14.72, 14.27, 14.16, 13.72, 13.7, 13.94, 14.37, 14.81, 15.25, 15.74, 15.34, 14.9, 14.5, 14.19, 14.19, 14.28, 14.72, 14.72, 15.2, 13.72, 13.39, 13.05, 12.39, 11.93, 10.14, 10.52, 11.51, 10.04, 9.75, 8.91, 8.72, 8.55, 8.12, 8.79, 8.73, 8.82, 7.9, 7.15, 5.46, 4.05, 3.49, 4.8, 5.54, 5.2, 6.16, 5.0, 2.71, 1.28, 2.52, 3.29, 6.4, 11.61, 8.56, 0.81, -0.0, 3.9, 6.36, 5.65, 4.01, 4.67, 5.76, 6.87, 9.0, 12.34, 15.6, 18.67, 15.2, 13.86, -0.0, 2.35, 7.8, 10.19, 12.2, 12.75, 12.56, 12.65, 12.52, 12.51, 12.52, 13.42, 13.56, 13.44, 11.2, 10.59, 10.12, 9.17, 7.78, 8.07, 8.22, 9.3, 9.17, 8.97, 14.3, 14.3, 14.3, 14.27, 14.27, 14.72, 14.72, 14.6, 14.16, 14.16, 14.14, 14.14, 14.55, 15.02, 15.68, 16.17, 15.74, 15.55, 15.12, 15.12, 14.94, 14.94, 14.94, 14.9, 15.61, 15.61, 15.18, 13.99, 13.75, 13.07, 12.79, 11.02, 10.75, 9.45, 9.45, 8.54, 7.81, 7.35, 8.94, 7.76, 8.47, 8.93, 7.9, 7.59, 5.21, 4.2, 3.87, 4.88, 5.98, 5.98, 6.24, 5.1, 3.25, 1.67, 3.15, 4.2, 6.58, 8.37, 8.5, 4.66, 2.45, 4.1, 4.38, 4.52, 3.2, 4.24, 5.64, 6.4, 9.33, 13.59, 17.29, 19.82, 22.78, 14.47, 3.6, 5.23, 9.79, 12.59, 14.0, 14.82, 14.2, 14.0, 13.49, 13.19, 12.72, 13.7, 13.35, 11.99, 10.23, 9.8, 10.12, 8.97, 7.82, 8.22, 8.97, 9.17, 7.89, 7.89, 14.3, 14.27, 14.27, 14.27, 14.27, 14.27, 14.18, 14.6, 14.6, 14.16, 14.14, 14.58, 14.55, 15.02, 15.68, 16.17, 15.74, 15.98, 15.98, 15.55, 15.12, 15.12, 15.12, 15.12, 16.06, 15.98, 15.23, 14.84, 14.18, 13.67, 13.44, 12.79, 10.8, 9.6, 8.37, 7.68, 7.97, 8.03, 9.09, 9.32, 8.23, 8.58, 7.59, 6.3, 5.21, 5.21, 5.21, 5.21, 6.3, 6.64, 6.95, 6.3, 6.3, 4.83, 5.36, 5.36, 5.21, 4.6, 5.8, 6.67, 5.63, 5.2, 5.77, 4.75, 3.68, 3.32, 5.0, 6.63, 9.71, 14.31, 18.37, 20.51, 18.5, 18.6, 6.45, 8.33, 12.88, 15.7, 15.79, 15.83, 15.5, 15.01, 14.99, 14.61, 13.8, 10.21, 11.6, 10.94, 10.12, 10.12, 9.8, 8.22, 9.27, 9.62, 8.93, 7.93, 7.63, 7.63, 14.27, 14.27, 14.27, 13.83, 14.18, 14.18, 14.18, 14.6, 14.6, 14.58, 14.58, 14.55, 14.55, 15.02, 15.25, 15.74, 15.04, 15.9, 15.98, 15.98, 15.55, 15.27, 15.27, 15.12, 15.17, 15.09, 14.93, 14.53, 14.6, 14.86, 13.51, 13.02, 11.33, 10.01, 8.32, 8.3, 8.38, 8.37, 8.55, 8.55, 8.38, 6.64, 6.3, 5.53, 5.46, 5.46, 5.46, 6.3, 7.56, 7.56, 7.21, 6.87, 7.21, 6.95, 6.95, 6.3, 5.46, 6.3, 6.98, 8.22, 8.22, 6.87, 6.7, 5.52, 3.98, 3.7, 4.4, 6.58, 9.17, 13.61, 20.34, 20.91, 17.89, 14.93, 11.17, 11.65, 15.37, 17.58, 18.02, 17.01, 16.64, 16.18, 15.53, 15.19, 13.65, 9.5, 9.66, 9.8, 10.12, 10.54, 10.22, 8.93, 9.26, 9.56, 9.48, 8.3, 8.45, 8.45, 14.27, 14.27, 14.18, 13.74, 13.74, 14.18, 14.18, 13.99, 14.42, 14.58, 14.55, 14.55, 14.55, 14.81, 14.81, 14.42, 14.61, 15.16, 15.58, 15.16, 14.73, 14.38, 13.97, 14.5, 14.75, 14.75, 13.99, 13.78, 14.17, 14.09, 13.11, 13.01, 13.46, 12.65, 8.65, 9.05, 8.05, 8.54, 8.55, 8.03, 6.64, 6.95, 6.64, 6.95, 6.3, 6.58, 6.95, 7.56, 8.0, 8.93, 8.15, 7.44, 7.44, 7.44, 6.64, 6.01, 5.46, 6.3, 7.27, 8.15, 8.49, 7.15, 5.95, 5.29, 5.29, 4.96, 3.99, 4.71, 8.15, 11.5, 19.51, 20.86, 18.95, 15.98, 13.76, 13.95, 16.45, 18.57, 18.75, 17.19, 16.99, 16.39, 15.74, 12.36, 9.8, 9.02, 9.48, 9.17, 9.48, 10.12, 10.54, 9.92, 9.26, 9.06, 9.16, 9.16, 8.66, 8.66, 14.27, 14.18, 13.74, 13.74, 13.74, 13.74, 14.03, 13.99, 14.58, 14.58, 14.55, 14.55, 14.31, 14.37, 14.37, 15.53, 13.67, 15.04, 15.04, 14.31, 13.97, 13.58, 13.19, 15.59, 14.31, 14.03, 10.01, 13.38, 14.51, 11.6, 12.62, 13.39, 14.42, 14.39, 12.96, 9.6, 8.12, 8.12, 9.2, 9.7, 8.18, 7.51, 8.55, 7.9, 8.24, 7.27, 7.56, 8.18, 8.54, 8.93, 8.54, 7.44, 7.21, 6.87, 6.3, 6.3, 5.46, 5.98, 6.98, 8.15, 7.59, 6.24, 5.54, 5.21, 5.21, 4.74, 5.1, 5.59, 8.06, 11.2, 15.58, 20.34, 21.41, 18.97, 17.5, 16.62, 16.46, 17.7, 19.29, 19.73, 16.42, 14.91, 13.06, 11.06, 10.52, 10.43, 9.89, 9.53, 9.48, 9.48, 10.12, 10.22, 9.02, 8.18, 9.82, 9.82, 9.67, 9.67, 14.18, 14.18, 13.74, 13.74, 13.59, 13.59, 13.99, 14.16, 14.58, 14.55, 14.55, 14.31, 14.31, 14.37, 14.1, 13.75, 14.18, 13.75, 15.09, 14.28, 14.79, 13.02, 14.19, 16.47, 13.9, 13.23, 13.23, 12.27, 12.52, 13.14, 13.87, 14.22, 14.56, 15.15, 14.74, 12.87, 10.68, 9.86, 8.63, 8.22, 8.22, 7.87, 8.12, 8.0, 7.32, 8.93, 8.18, 8.55, 8.93, 8.54, 8.15, 7.21, 6.64, 6.3, 5.89, 5.21, 6.24, 5.64, 6.83, 7.9, 6.87, 5.1, 5.32, 5.1, 4.34, 5.21, 5.46, 6.95, 8.67, 11.09, 15.35, 20.66, 22.07, 21.14, 19.22, 17.22, 16.0, 15.87, 16.5, 18.73, 18.48, 15.59, 13.18, 11.96, 11.68, 10.9, 10.19, 9.9, 9.53, 8.85, 9.48, 10.12, 9.36, 8.72, 9.6, 11.06, 10.84, 10.84, 13.74, 14.18, 13.74, 13.55, 13.55, 13.55, 13.99, 14.14, 14.58, 14.55, 14.31, 14.31, 14.37, 14.1, 14.53, 14.61, 14.61, 13.32, 12.46, 14.28, 15.77, 14.86, 16.05, 14.31, 12.89, 12.89, 13.1, 13.49, 13.87, 14.62, 14.97, 14.97, 14.97, 15.29, 15.15, 13.92, 12.45, 10.79, 9.86, 8.22, 8.63, 8.52, 8.93, 8.8, 7.69, 8.59, 7.56, 8.93, 8.93, 8.93, 7.56, 6.95, 7.27, 6.3, 6.58, 5.21, 5.06, 6.42, 7.59, 7.27, 5.7, 5.1, 5.1, 5.98, 5.06, 5.29, 5.9, 7.59, 9.0, 11.26, 14.3, 18.73, 20.44, 19.57, 17.62, 15.06, 15.06, 15.96, 15.65, 15.09, 15.7, 15.18, 14.13, 12.5, 12.56, 11.09, 10.65, 10.51, 10.84, 8.53, 9.17, 9.7, 10.01, 9.43, 10.43, 10.78, 11.15, 11.15, 13.74, 13.74, 13.55, 13.55, 13.55, 13.55, 13.7, 14.14, 14.58, 14.37, 14.37, 14.37, 14.1, 14.1, 14.18, 14.31, 14.31, 13.47, 13.15, 13.7, 15.16, 15.74, 15.61, 14.33, 14.26, 14.26, 14.26, 13.83, 13.83, 14.56, 14.97, 14.97, 14.97, 14.97, 14.97, 14.88, 13.52, 12.14, 10.38, 9.32, 8.4, 8.27, 8.27, 7.92, 6.98, 6.31, 8.37, 8.93, 8.37, 7.9, 7.27, 7.27, 7.27, 6.58, 5.46, 5.32, 5.75, 8.22, 8.03, 6.14, 4.2, 4.78, 4.83, 5.06, 5.76, 5.76, 5.9, 7.18, 8.22, 9.48, 10.43, 16.52, 18.72, 17.85, 0.0, 7.44, 15.19, 17.64, 17.3, 13.39, 12.65, 13.1, 13.82, 13.16, 12.5, 12.16, 10.22, 10.87, 11.06, 9.48, 8.85, 9.48, 10.43, 10.78, 10.81, 11.8, 11.9, 11.9, 13.74, 13.74, 13.72, 13.55, 13.72, 13.7, 13.7, 14.14, 14.37, 14.37, 14.81, 14.53, 14.1, 14.1, 13.89, 14.31, 14.31, 13.56, 13.28, 13.37, 14.94, 15.34, 14.72, 14.05, 13.87, 14.26, 15.03, 14.64, 14.79, 13.99, 14.3, 14.56, 14.56, 14.56, 14.56, 14.56, 14.47, 12.29, 10.65, 9.72, 8.91, 8.4, 8.27, 7.44, 6.87, 6.31, 8.37, 7.56, 7.9, 7.27, 7.27, 7.59, 7.27, 7.27, 5.95, 5.0, 7.95, 9.42, 8.73, 3.8, 2.17, 3.65, 4.92, 5.14, 5.35, 6.0, 6.57, 6.83, 6.98, 6.84, 8.54, 12.01, 21.51, 16.66, -0.0, 4.96, 10.73, 13.97, 15.19, 14.57, 13.33, 12.79, 12.65, 13.03, 13.11, 11.48, 10.08, 10.68, 11.83, 12.81, 9.8, 10.18, 10.81, 11.8, 11.8, 11.79, 11.79, 11.79, 13.74, 13.74, 13.72, 13.72, 13.7, 13.7, 13.7, 13.94, 14.37, 14.37, 14.53, 14.53, 14.53, 14.1, 14.31, 14.31, 13.97, 13.56, 13.7, 13.37, 14.18, 15.82, 15.09, 12.64, 12.39, 13.51, 14.64, 15.24, 15.59, 14.79, 14.39, 13.75, 14.16, 14.16, 14.3, 14.3, 14.3, 12.54, 11.06, 9.83, 9.07, 8.93, 8.38, 7.44, 6.79, 6.57, 8.73, 8.73, 8.15, 8.15, 7.59, 7.27, 7.9, 7.27, 6.98, 6.98, 7.9, 8.02, 7.73, 3.39, 1.84, 2.57, 4.25, 5.14, 5.76, 5.76, 6.98, 8.53, 6.83, 7.13, 8.47, 19.73, 24.76, 23.75, 18.66, 14.23, 12.14, 11.3, 13.88, 14.75, 15.47, 14.08, 13.39, 12.27, 10.4, 10.22, 10.22, 11.22, 12.33, 12.96, 12.15, 11.6, 11.42, 11.79, 11.79, 12.33, 11.42, 11.42, 13.72, 13.72, 13.72, 13.72, 13.25, 13.25, 13.5, 13.94, 13.94, 14.1, 14.53, 14.53, 14.53, 14.19, 14.31, 14.31, 13.56, 13.56, 13.19, 13.2, 14.18, 16.41, 15.87, 13.49, 12.05, 12.76, 14.26, 14.85, 15.19, 15.35, 14.79, 14.71, 14.16, 13.75, 13.89, 13.89, 13.89, 13.48, 11.33, 9.6, 9.07, 8.54, 7.9, 7.72, 7.15, 7.35, 7.23, 7.61, 7.76, 7.61, 7.44, 8.93, 7.59, 7.27, 6.42, 7.27, 7.59, 6.42, 5.64, 5.0, 3.92, 3.63, 4.56, 5.29, 5.9, 6.7, 7.48, 7.48, 7.48, 9.36, 11.36, 15.9, 23.21, 22.73, 24.89, 21.25, 19.05, 16.05, 13.86, 13.86, 15.2, 15.17, 13.97, 10.57, 8.57, 9.39, 9.67, 10.92, 12.01, 12.72, 15.27, 13.88, 12.13, 11.88, 11.37, 11.75, 11.53, 11.53, 13.72, 13.72, 13.28, 13.25, 13.25, 13.25, 13.5, 13.94, 14.1, 14.1, 14.1, 14.53, 14.19, 14.6, 14.73, 14.31, 13.89, 13.56, 13.37, 13.41, 14.53, 16.54, 15.37, 13.89, 13.51, 12.76, 13.68, 14.46, 15.35, 15.35, 15.19, 14.79, 14.97, 14.3, 13.89, 13.89, 13.89, 14.17, 12.81, 10.0, 9.07, 8.82, 8.0, 7.44, 7.44, 7.9, 8.15, 8.15, 8.4, 8.4, 9.05, 8.42, 9.27, 7.73, 7.44, 7.9, 7.59, 6.71, 5.4, 5.86, 6.71, 6.5, 5.2, 4.78, 5.29, 6.7, 7.48, 7.48, 9.04, 10.0, 11.11, 14.31, 17.96, 22.56, 22.21, 23.48, 22.36, 19.22, 16.09, 12.96, 15.2, 15.53, 10.47, 7.82, 7.48, 9.77, 10.18, 11.38, 11.83, 12.49, 14.2, 15.13, 13.68, 12.47, 10.79, 11.66, 11.16, 11.16, 13.28, 13.28, 13.28, 13.25, 13.25, 13.5, 13.5, 13.94, 14.1, 14.1, 13.77, 14.19, 14.19, 14.6, 14.73, 14.31, 13.89, 13.7, 13.37, 13.77, 15.38, 15.67, 14.26, 14.26, 13.89, 14.07, 13.68, 14.54, 14.95, 14.95, 14.79, 14.39, 14.39, 14.79, 15.11, 14.71, 14.58, 14.16, 13.59, 12.08, 9.86, 8.93, 8.55, 8.0, 8.27, 8.68, 8.28, 8.51, 8.51, 9.55, 9.45, 8.93, 7.96, 7.27, 7.9, 8.31, 7.95, 6.71, 4.92, 6.2, 7.95, 7.59, 5.95, 3.49, 5.92, 6.42, 7.48, 7.97, 9.04, 10.63, 11.79, 13.23, 16.7, 19.27, 21.42, 22.59, 21.91, 19.79, 16.37, 11.3, 11.2, 9.5, 6.43, 6.09, 8.1, 9.58, 11.38, 11.79, 11.88, 12.62, 12.78, 14.62, 14.26, 12.79, 11.64, 11.53, 11.53, 11.53, 13.28, 13.28, 13.28, 13.07, 13.07, 13.5, 13.5, 13.67, 14.1, 13.77, 13.77, 14.19, 14.19, 14.6, 14.73, 14.73, 13.99, 13.7, 13.77, 14.53, 15.65, 14.88, 14.46, 13.89, 14.26, 14.46, 14.39, 14.14, 14.14, 14.54, 14.39, 14.39, 14.39, 14.71, 14.71, 14.71, 14.71, 13.83, 13.64, 12.51, 10.99, 8.93, 8.55, 8.0, 8.27, 8.43, 8.68, 8.91, 8.91, 9.72, 9.02, 8.5, 8.19, 7.55, 7.55, 8.12, 7.95, 6.97, 5.76, 6.45, 8.12, 7.9, 5.9, 4.6, 5.76, 7.95, 8.31, 8.38, 9.05, 10.63, 12.45, 14.15, 15.27, 15.56, 17.64, 20.22, 22.38, 19.02, 17.99, 12.9, 8.93, 6.2, 5.14, 7.01, 7.93, 9.73, 11.11, 12.57, 12.98, 12.65, 13.02, 14.03, 15.25, 13.51, 13.02, 13.42, 13.42, 13.42, 13.11, 13.11, 13.07, 13.07, 13.07, 13.5, 13.25, 13.67, 13.77, 13.77, 13.77, 14.19, 14.19, 14.6, 14.73, 14.73, 14.42, 13.7, 14.11, 15.53, 15.23, 13.99, 13.87, 14.26, 14.46, 14.79, 14.54, 14.14, 14.14, 13.99, 14.39, 14.39, 14.71, 14.71, 14.71, 14.39, 14.22, 13.87, 13.27, 13.27, 11.75, 9.48, 8.55, 9.4, 9.4, 8.0, 8.68, 9.07, 9.4, 9.02, 8.79, 8.15, 7.81, 9.2, 9.17, 7.88, 7.96, 7.68, 6.45, 7.36, 8.12, 7.82, 5.63, 5.86, 7.36, 8.22, 8.93, 9.04, 9.03, 9.9, 12.04, 14.33, 15.35, 14.99, 15.56, 18.0, 18.2, 18.99, 20.51, 20.35, 14.47, 6.17, 5.92, 6.98, 9.85, 10.9, 12.13, 13.03, 13.64, 13.42, 13.03, 13.42, 14.07, 14.49, 13.65, 14.2, 14.2, 14.2, 13.11, 13.11, 13.07, 13.07, 13.07, 13.25, 13.25, 13.35, 13.77, 13.77, 13.77, 13.77, 14.19, 14.6, 14.73, 15.04, 15.12, 14.42, 14.94, 15.17, 14.58, 13.59, 13.83, 14.39, 14.39, 15.11, 14.71, 13.99, 13.99, 13.99, 13.99, 14.3, 14.16, 13.83, 13.83, 13.49, 13.87, 13.87, 13.49, 13.27, 12.51, 10.61, 8.55, 8.0, 8.0, 9.67, 10.04, 10.15, 8.79, 8.65, 8.65, 8.73, 9.49, 10.58, 9.85, 8.53, 7.3, 6.98, 7.51, 7.64, 7.82, 7.73, 6.97, 6.97, 7.82, 7.36, 8.01, 9.48, 8.42, 8.4, 9.42, 11.88, 16.39, 17.89, 15.62, 18.33, 18.28, 14.97, 17.78, 20.94, 17.8, 10.52, 10.31, 10.52, 10.99, 13.11, 14.08, 13.65, 13.39, 13.52, 13.37, 14.18, 14.16, 15.41, 14.62, 13.99, 14.58, 14.58, 13.07, 13.07, 13.07, 13.07, 12.82, 13.25, 12.93, 13.35, 13.77, 13.77, 13.77, 13.77, 14.19, 14.95, 15.04, 15.3, 15.34, 15.08, 15.2, 14.64, 13.89, 13.75, 13.75, 14.3, 14.71, 14.71, 14.71, 13.99, 13.89, 13.89, 14.16, 13.83, 13.43, 13.43, 13.1, 13.1, 13.49, 13.49, 13.49, 13.49, 12.89, 11.37, 9.3, 8.0, 8.27, 9.65, 11.58, 11.16, 10.61, 9.1, 9.2, 9.02, 9.56, 9.56, 9.2, 8.53, 7.6, 7.61, 6.98, 7.51, 7.36, 7.73, 7.73, 7.82, 7.36, 6.7, 7.08, 8.85, 8.22, 8.24, 7.06, 8.65, 14.49, 20.87, 20.09, 19.22, 19.16, 14.79, 14.39, 18.02, 17.82, 17.01, 13.54, 14.39, 15.01, 14.53, 14.72, 15.17, 13.99, 13.32, 13.05, 13.65, 14.33, 14.58, 15.11, 14.56, 14.79, 14.79, 13.07, 13.07, 12.82, 12.82, 12.82, 12.93, 12.93, 13.35, 13.77, 13.77, 13.77, 13.77, 13.77, 14.53, 15.3, 15.3, 15.53, 15.65, 15.43, 14.17, 13.75, 13.75, 14.16, 14.3, 14.3, 14.71, 14.71, 13.59, 14.79, 12.79, 13.25, 13.64, 13.1, 13.1, 12.72, 13.1, 13.1, 13.49, 13.49, 13.49, 13.27, 12.13, 9.86, 8.93, 8.82, 9.2, 10.52, 11.69, 11.33, 11.6, 11.83, 10.15, 9.19, 9.21, 8.22, 7.88, 7.26, 6.98, 6.98, 6.98, 8.01, 8.12, 7.08, 7.44, 7.36, 6.98, 6.14, 8.22, 9.42, 9.66, 8.03, 8.42, 12.21, 20.41, 25.02, 22.05, 16.7, 11.2, 13.02, 15.8, 17.92, 17.82, 17.43, 15.18, 15.98, 15.65, 15.65, 15.2, 14.9, 13.5, 12.89, 12.72, 13.39, 13.75, 14.71, 14.16, 14.79, 14.79, 12.82, 12.82, 12.82, 12.82, 12.52, 12.93, 12.93, 13.35, 13.77, 13.62, 13.62, 13.77, 13.77, 14.1, 15.49, 15.61, 15.65, 15.23, 14.84, 14.05, 14.16, 14.16, 14.16, 13.89, 14.3, 14.3, 14.3, 13.75, 12.94, 14.39, 12.47, 13.43, 13.83, 13.83, 13.43, 13.43, 13.43, 13.43, 13.83, 13.27, 13.27, 12.51, 10.61, 9.3, 9.2, 9.58, 10.4, 11.88, 11.06, 12.29, 11.44, 10.15, 8.86, 8.53, 7.58, 7.18, 6.87, 6.98, 6.98, 7.61, 7.61, 6.57, 6.94, 6.57, 7.36, 7.48, 6.83, 7.35, 9.3, 10.79, 10.29, 9.65, 11.18, 17.59, 24.99, 24.49, 13.8, 11.6, 13.64, 15.42, 17.28, 17.92, 17.53, 16.84, 15.15, 15.57, 15.04, 14.61, 14.53, 13.2, 12.52, 12.04, 12.29, 13.07, 13.6, 14.33, 14.56, 14.56, 12.39, 12.39, 12.82, 12.52, 12.52, 12.93, 12.93, 13.35, 13.2, 13.62, 13.62, 13.99, 14.1, 14.37, 15.17, 15.65, 15.41, 14.58, 14.33, 14.47, 14.16, 14.16, 14.16, 13.89, 13.89, 14.3, 14.16, 13.75, 13.75, 13.35, 13.04, 13.04, 13.04, 13.43, 13.43, 13.43, 13.43, 13.43, 13.64, 13.64, 13.27, 12.89, 11.37, 9.2, 8.82, 10.0, 10.65, 11.47, 11.06, 10.65, 10.15, 9.46, 8.19, 8.21, 7.58, 6.9, 7.18, 6.9, 6.98, 7.61, 7.96, 6.7, 7.24, 7.24, 6.7, 7.48, 7.18, 7.97, 8.94, 10.41, 10.28, 11.5, 12.51, 15.91, 21.78, 23.52, 17.8, 13.89, 14.75, 15.67, 16.48, 16.41, 16.61, 16.55, 16.19, 11.64, 10.75, 11.8, 13.13, 12.2, 11.6, 11.92, 11.88, 12.92, 13.84, 14.01, 14.71, 14.71, 12.39, 12.39, 12.52, 12.52, 12.52, 12.52, 12.93, 13.2, 13.2, 13.99, 13.99, 14.37, 14.37, 14.6, 15.2, 15.38, 14.58, 14.33, 14.05, 14.47, 14.16, 14.16, 14.16, 14.16, 13.75, 13.75, 14.16, 13.75, 13.75, 13.75, 13.35, 12.94, 12.94, 12.94, 13.35, 13.43, 13.43, 13.25, 13.25, 13.64, 13.64, 13.25, 12.08, 10.13, 9.2, 9.6, 10.65, 10.65, 10.65, 9.58, 9.09, 8.79, 7.88, 7.59, 7.27, 6.9, 6.9, 6.9, 7.27, 7.6, 6.34, 7.19, 7.24, 7.24, 7.24, 7.56, 7.59, 8.31, 8.68, 9.3, 9.84, 11.72, 13.62, 16.48, 19.03, 19.45, 19.39, 17.58, 15.9, 15.68, 14.95, 15.38, 15.12, 13.42, 11.69, 9.48, 9.8, 11.44, 11.39, 11.64, 12.15, 12.56, 13.23, 12.92, 13.83, 13.83, 14.92, 14.92, 12.1, 12.1, 12.52, 12.52, 12.52, 12.38, 12.79, 12.79, 13.57, 13.57, 14.31, 14.37, 14.6, 14.75, 14.72, 14.94, 14.23, 13.92, 13.92, 14.47, 14.16, 14.16, 14.16, 14.16, 14.16, 13.75, 13.75, 13.75, 13.35, 13.35, 13.19, 13.35, 12.94, 12.54, 12.94, 12.94, 13.19, 13.59, 13.25, 13.25, 13.25, 13.03, 12.27, 10.8, 9.07, 10.26, 10.65, 10.26, 10.15, 9.09, 8.44, 8.49, 8.49, 7.59, 6.98, 6.9, 6.9, 6.63, 6.98, 6.98, 6.34, 5.7, 6.94, 6.57, 6.84, 8.22, 7.59, 7.97, 8.31, 8.31, 10.23, 10.28, 15.02, 17.64, 17.89, 16.03, 15.59, 17.78, 19.09, 19.61, 17.09, 13.34, 11.5, 10.12, 9.48, 9.89, 9.89, 10.98, 11.66, 13.11, 13.07, 13.29, 13.49, 13.65, 13.23, 13.23, 13.83, 13.83, 12.1, 12.1, 12.52, 12.38, 12.38, 12.38, 13.15, 13.15, 13.57, 13.88, 13.94, 14.37, 14.75, 14.75, 14.62, 14.75, 14.23, 13.92, 13.92, 14.47, 14.47, 14.16, 14.16, 14.16, 13.75, 13.75, 13.75, 13.75, 13.35, 13.19, 13.19, 13.19, 12.94, 12.54, 12.54, 12.39, 12.79, 13.19, 13.19, 13.25, 13.03, 13.03, 11.88, 10.43, 9.7, 10.26, 10.26, 9.4, 9.78, 9.21, 8.44, 8.15, 8.21, 7.59, 6.98, 6.9, 6.9, 6.63, 6.98, 6.98, 5.95, 4.6, 5.86, 6.57, 7.36, 8.22, 7.27, 7.59, 7.97, 7.97, 9.0, 9.92, 13.51, 18.79, 18.73, 16.36, 13.11, 16.53, 19.66, 20.47, 17.66, 12.45, 9.69, 9.26, 8.85, 9.53, 10.55, 11.28, 12.39, 13.49, 13.96, 14.11, 13.77, 13.31, 12.86, 12.87, 13.39, 13.23, 12.1, 12.1, 12.1, 12.38, 12.38, 12.72, 13.02, 13.15, 13.57, 13.94, 13.94, 14.26, 14.3, 14.27, 14.47, 14.69, 14.11, 13.92, 13.92, 14.47, 14.16, 14.16, 14.16, 14.16, 14.16, 13.75, 13.75, 13.75, 13.19, 13.19, 12.79, 12.79, 12.79, 12.54, 12.54, 12.39, 12.39, 12.79, 13.19, 13.02, 12.65, 13.41, 11.28, 10.43, 9.2, 9.2, 9.4, 9.78, 9.57, 9.57, 8.87, 8.49, 7.88, 6.97, 6.97, 6.63, 6.93, 6.64, 6.69, 6.98, 5.7, 4.63, 5.86, 6.15, 6.7, 7.27, 7.27, 7.18, 7.9, 8.31, 8.31, 9.42, 12.56, 16.55, 20.55, 20.54, 15.61, 15.78, 19.2, 18.11, 14.46, 12.46, 11.33, 9.56, 9.53, 10.55, 11.37, 12.39, 13.49, 13.96, 14.11, 13.77, 13.32, 12.94, 12.94, 12.49, 12.94, 13.39, 12.1, 12.1, 12.1, 12.38, 12.72, 12.6, 12.6, 13.15, 13.88, 13.94, 14.26, 14.3, 14.27, 14.18, 14.47, 13.99, 14.11, 14.11, 13.92, 13.92, 14.16, 14.16, 14.16, 13.75, 13.75, 13.35, 13.35, 13.35, 13.19, 13.19, 12.79, 12.79, 12.79, 12.39, 12.39, 12.39, 12.39, 12.39, 12.62, 12.62, 13.02, 13.02, 11.64, 9.32, 10.04, 9.97, 11.28, 11.03, 10.28, 10.28, 9.56, 9.21, 8.21, 7.27, 6.67, 6.64, 6.64, 6.35, 6.35, 6.35, 5.7, 4.63, 4.45, 6.5, 7.27, 7.27, 6.42, 7.59, 7.48, 8.31, 8.31, 9.04, 11.6, 13.99, 18.57, 21.38, 22.47, 15.68, 15.96, 13.13, 12.13, 12.76, 13.82, 12.76, 10.91, 11.88, 12.94, 13.49, 13.96, 14.11, 13.77, 13.39, 12.94, 12.96, 12.96, 12.96, 12.92, 12.94, 12.1, 12.1, 11.97, 12.3, 12.72, 12.6, 12.6, 13.44, 13.44, 14.26, 14.3, 14.3, 14.27, 14.03, 14.25, 13.99, 14.11, 14.11, 13.92, 13.92, 13.59, 13.75, 14.16, 14.16, 13.75, 13.35, 13.35, 13.19, 13.19, 13.19, 12.79, 12.39, 12.39, 12.7, 12.7, 12.7, 12.7, 12.7, 12.23, 12.23, 12.62, 13.02, 12.03, 10.09, 9.32, 11.2, 12.03, 11.64, 11.28, 10.63, 10.63, 9.56, 8.57, 7.59, 6.95, 6.35, 6.35, 6.35, 6.35, 5.72, 5.7, 4.63, 5.86, 5.69, 5.69, 5.92, 6.83, 7.27, 7.59, 8.31, 9.0, 9.04, 10.55, 11.99, 13.39, 19.52, 25.4, 23.99, 14.79, 10.48, 12.0, 14.13, 15.79, 16.55, 13.41, 12.7, 13.72, 13.96, 14.22, 13.77, 13.39, 12.96, 12.96, 12.96, 12.96, 12.9, 12.58, 12.58, 12.39, 12.39, 12.3, 12.3, 12.18, 12.6, 12.94, 13.44, 13.67, 13.86, 13.86, 14.27, 14.16, 14.03, 13.82, 13.99, 13.7, 14.11, 13.37, 13.92, 13.59, 13.59, 13.75, 13.75, 13.75, 13.35, 13.19, 13.19, 13.19, 13.19, 12.79, 12.7, 12.7, 12.7, 12.29, 12.7, 12.7, 12.56, 12.56, 12.56, 12.96, 12.79, 12.03, 10.8, 10.4, 11.2, 12.62, 11.66, 10.9, 10.66, 10.28, 8.9, 8.24, 6.95, 6.64, 6.34, 6.06, 6.35, 6.35, 6.0, 5.32, 5.06, 4.44, 5.0, 4.8, 6.5, 7.27, 7.59, 7.27, 8.31, 9.04, 8.68, 10.55, 9.67, 11.88, 15.91, 21.09, 27.86, 23.65, 16.17, 14.13, 15.54, 17.92, 19.72, 17.02, 12.96, 13.62, 13.76, 13.84, 13.39, 12.96, 12.96, 12.96, 12.9, 12.46, 12.04, 12.04, 12.04, 12.1, 12.1, 12.3, 12.3, 12.18, 12.6, 12.94, 13.23, 13.81, 13.86, 13.86, 13.82, 14.16, 13.99, 13.75, 13.89, 13.56, 13.7, 13.37, 13.92, 13.92, 13.59, 13.59, 13.59, 13.19, 12.79, 13.19, 13.19, 13.19, 13.52, 13.11, 12.7, 12.7, 12.29, 12.29, 12.29, 12.7, 12.56, 12.56, 12.56, 12.79, 12.79, 12.39, 11.2, 10.8, 11.2, 11.64, 11.26, 10.15, 9.56, 8.86, 8.59, 7.58, 6.92, 6.64, 6.34, 6.01, 6.34, 5.72, 5.72, 5.34, 5.08, 4.66, 5.2, 4.8, 6.24, 7.27, 7.27, 8.02, 8.73, 8.68, 8.42, 9.05, 10.28, 11.83, 13.43, 17.66, 22.08, 26.96, 23.74, 18.92, 15.92, 17.92, 19.59, 18.42, 13.01, 13.31, 13.39, 13.41, 12.96, 12.52, 12.52, 12.88, 12.46, 12.04, 11.61, 11.61, 11.61, 11.68, 11.68, 12.3, 12.3, 12.18, 12.51, 12.94, 13.23, 13.36, 13.86, 13.86, 13.72, 13.99, 13.75, 13.47, 13.56, 13.56, 13.37, 13.37, 13.52, 13.92, 13.92, 13.59, 13.59, 13.59, 13.19, 13.19, 13.19, 13.52, 13.52, 13.11, 13.11, 12.7, 12.7, 12.56, 12.56, 12.45, 12.56, 12.56, 12.56, 12.79, 12.79, 12.39, 11.6, 10.8, 10.8, 11.2, 10.87, 9.56, 8.82, 7.56, 7.21, 7.21, 6.92, 6.64, 5.72, 5.72, 6.01, 6.01, 5.72, 5.09, 5.09, 4.44, 4.0, 6.16, 6.24, 7.9, 7.27, 7.97, 8.38, 8.49, 8.03, 9.04, 10.28, 11.83, 12.86, 15.03, 18.44, 19.47, 22.17, 25.56, 21.58, 19.19, 19.85, 18.84, 14.75, 12.86, 13.38, 12.96, 12.52, 13.41, 11.45, 12.3, 12.04, 11.95, 11.98, 11.98, 11.98, 11.55, 11.55, 11.87, 12.3, 12.18, 12.51, 13.19, 13.23, 13.41, 13.86, 13.82, 13.72, 13.99, 13.75, 13.47, 13.56, 13.56, 13.19, 13.37, 13.37, 13.52, 13.52, 13.92, 13.92, 13.52, 13.52, 13.52, 13.52, 13.52, 13.52, 13.11, 13.11, 12.98, 12.98, 12.56, 12.45, 12.45, 12.87, 12.87, 12.39, 12.74, 13.15, 12.74, 12.33, 11.02, 10.63, 11.02, 10.66, 10.28, 9.19, 7.9, 6.87, 6.87, 6.92, 6.32, 5.72, 5.72, 5.72, 5.72, 5.72, 5.09, 4.69, 4.69, 4.44, 4.69, 6.98, 7.59, 6.95, 7.68, 8.02, 8.03, 8.38, 9.04, 10.28, 11.64, 12.23, 13.83, 16.06, 17.1, 16.45, 21.24, 28.23, 21.99, 20.39, 20.96, 15.98, 12.71, 12.85, 12.92, 13.23, 10.04, 9.96, 11.46, 11.51, 11.62, 11.18, 11.18, 11.18, 11.55, 11.55, 11.87, 12.18, 12.18, 12.51, 12.75, 13.36, 13.41, 13.86, 13.7, 13.55, 13.25, 13.47, 13.47, 13.15, 12.79, 12.79, 12.96, 12.96, 13.37, 13.52, 13.52, 13.92, 13.92, 13.52, 13.11, 13.52, 13.52, 13.52, 13.52, 13.39, 13.39, 12.98, 12.56, 12.45, 12.45, 12.45, 12.87, 12.87, 12.74, 12.74, 12.74, 12.33, 11.41, 10.63, 11.02, 10.66, 10.66, 9.3, 8.58, 7.51, 6.87, 6.59, 6.32, 6.01, 5.72, 5.72, 5.72, 5.72, 5.36, 4.71, 4.45, 4.69, 4.69, 6.24, 6.58, 6.58, 7.59, 7.27, 8.38, 8.73, 9.67, 10.28, 11.26, 11.66, 12.51, 14.49, 15.5, 15.83, 17.48, 24.53, 26.82, 21.59, 23.11, 17.09, 14.86, 12.63, 12.42, 10.8, 11.28, 10.96, 11.18, 10.73, 10.73, 10.73, 10.73, 10.73, 11.55, 11.55, 11.39, 11.76, 12.18, 12.51, 12.75, 13.36, 13.41, 13.37, 13.7, 13.25, 13.25, 13.47, 13.15, 13.15, 12.79, 12.79, 12.96, 12.96, 13.37, 13.37, 13.92, 13.92, 13.92, 13.52, 13.11, 12.7, 12.96, 12.96, 13.81, 13.81, 13.39, 12.98, 12.45, 12.45, 12.45, 12.45, 12.45, 12.72, 12.63, 13.05, 12.74, 12.18, 11.77, 11.02, 11.41, 11.02, 10.41, 9.67, 8.58, 8.23, 7.21, 6.87, 6.32, 6.01, 5.71, 5.44, 5.72, 5.36, 5.1, 4.71, 4.71, 4.03, 4.45, 6.5, 6.24, 6.24, 7.59, 7.68, 8.38, 8.73, 9.4, 10.04, 10.29, 10.63, 11.9, 12.89, 14.5, 15.47, 16.48, 19.76, 24.79, 25.58, 24.9, 19.7, 16.38, 13.44, 10.8, 10.8, 11.62, 11.18, 10.73, 10.14, 10.62, 10.62, 10.62, 10.62, 11.55, 11.55, 11.39, 11.76, 11.76, 12.51, 12.75, 13.41, 13.41, 13.25, 13.5, 13.25, 13.05, 13.47, 13.15, 12.79, 12.79, 12.79, 12.96, 12.96, 12.96, 13.37, 13.37, 13.52, 13.52, 13.52, 12.96, 12.56, 12.87, 12.87, 12.87, 13.39, 13.39, 12.87, 12.45, 12.45, 12.45, 12.72, 12.72, 12.72, 12.63, 12.33, 12.58, 12.18, 11.77, 11.02, 11.41, 11.2, 10.04, 9.67, 8.58, 8.23, 7.56, 6.95, 5.71, 5.71, 5.71, 5.71, 5.38, 5.1, 5.1, 4.71, 4.46, 4.28, 4.28, 6.04, 5.9, 6.83, 6.83, 8.02, 8.02, 8.02, 8.73, 9.0, 9.62, 10.28, 10.9, 11.9, 13.59, 15.22, 16.49, 17.1, 19.18, 22.55, 24.62, 19.79, 13.19, 9.38, 9.7, 10.79, 11.18, 10.73, 10.28, 10.14, 10.18, 10.62, 10.62, 10.62, 11.39, 10.99, 11.39, 11.76, 12.08, 12.75, 12.92, 12.96, 13.37, 13.25, 13.5, 13.32, 13.47, 13.15, 12.58, 12.2, 12.39, 12.39, 12.74, 13.28, 13.28, 13.7, 13.7, 13.7, 13.7, 13.7, 13.28, 13.28, 12.87, 12.45, 12.45, 12.45, 12.87, 12.87, 12.45, 12.3, 12.3, 12.3, 12.3, 12.21, 12.63, 12.33, 12.18, 12.18, 11.77, 11.41, 11.41, 10.81, 10.04, 9.4, 8.68, 8.23, 7.87, 6.62, 5.71, 5.71, 5.71, 5.71, 5.38, 5.38, 5.38, 4.46, 4.46, 4.05, 4.05, 5.21, 6.04, 6.7, 6.7, 7.59, 7.59, 8.02, 7.68, 8.31, 9.0, 9.62, 10.24, 11.25, 12.89, 14.51, 15.87, 16.12, 16.49, 19.83, 24.72, 16.68, 14.39, 9.4, 9.86, 11.03, 11.46, 10.96, 10.58, 10.58, 10.62, 11.06, 11.06, 11.06, 10.99, 10.99, 11.21, 11.76, 12.08, 12.31, 12.96, 12.96, 13.25, 13.07, 13.25, 13.05, 13.47, 13.15, 12.58, 11.81, 12.33, 12.74, 13.15, 13.28, 13.28, 13.28, 13.7, 13.7, 13.7, 13.7, 13.28, 13.28, 12.87, 12.87, 12.45, 12.45, 12.72, 12.72, 12.3, 12.3, 12.3, 12.3, 12.3, 12.21, 12.21, 11.92, 12.18, 12.18, 11.77, 11.77, 11.02, 10.81, 10.43, 9.4, 8.68, 7.95, 7.61, 6.64, 6.32, 5.71, 5.71, 5.71, 5.1, 5.1, 5.1, 4.73, 4.73, 4.47, 4.32, 4.1, 5.36, 6.04, 6.42, 7.18, 7.9, 8.31, 8.02, 6.95, 7.97, 9.34, 10.28, 11.28, 12.89, 13.87, 14.88, 15.5, 16.1, 18.79, 19.67, 17.82, 15.77, 11.03, 9.89, 10.18, 10.6, 10.6, 10.58, 10.62, 11.06, 11.06, 11.06, 11.06, 10.8, 10.8, 11.21, 11.64, 12.31, 12.47, 12.52, 12.92, 12.81, 12.82, 12.93, 13.05, 13.15, 12.74, 12.18, 12.18, 12.74, 12.74, 13.15, 13.15, 13.28, 13.28, 13.7, 13.7, 13.7, 13.28, 13.28, 12.87, 12.87, 12.87, 12.72, 12.72, 12.72, 12.72, 12.3, 12.3, 12.3, 11.87, 11.79, 12.21, 12.21, 11.92, 11.77, 11.77, 11.77, 11.77, 11.36, 10.81, 10.18, 9.4, 8.68, 8.32, 7.96, 6.64, 6.32, 6.01, 5.41, 5.1, 5.1, 5.1, 5.1, 4.73, 4.47, 4.75, 4.75, 4.39, 5.1, 5.36, 6.04, 7.27, 7.59, 7.97, 7.97, 7.68, 7.68, 9.0, 10.66, 11.66, 12.65, 13.25, 13.51, 14.88, 16.69, 26.21, 20.71, 18.79, 16.7, 13.53, 11.51, 10.14, 10.32, 11.18, 11.51, 11.06, 11.09, 11.53, 11.53, 11.53, 11.21, 11.21, 11.56, 11.88, 12.47, 12.52, 12.52, 12.81, 12.63, 12.82, 13.05, 13.05, 12.74, 12.58, 12.18, 12.18, 12.74, 12.74, 12.74, 13.15, 13.15, 13.28, 13.7, 13.7, 13.7, 13.28, 13.28, 12.87, 12.87, 12.72, 12.72, 12.72, 12.72, 12.72, 12.3, 11.87, 11.87, 11.87, 11.79, 11.79, 12.21, 12.21, 12.1, 12.1, 12.1, 12.1, 11.36, 11.2, 10.18, 9.81, 8.68, 8.32, 7.31, 6.64, 6.32, 6.01, 5.68, 5.38, 5.1, 5.1, 4.81, 4.75, 4.75, 4.75, 4.75, 5.06, 4.36, 3.78, 6.32, 7.4, 7.35, 7.68, 8.03, 7.68, 7.68, 9.04, 10.41, 11.66, 11.9, 12.27, 12.26, 13.89, 20.61, 25.74, 22.47, 18.49, 16.12, 13.15, 11.72, 10.88, 10.18, 11.03, 11.28, 11.28, 10.91, 11.35, 11.35, 11.35, 11.56, 11.56, 11.64, 11.88, 12.03, 12.52, 12.47, 12.81, 12.63, 12.82, 12.63, 12.63, 12.33, 12.18, 11.77, 12.18, 12.74, 12.74, 12.74, 13.15, 13.47, 13.47, 13.47, 13.57, 13.57, 13.57, 13.15, 13.15, 13.15, 12.72, 12.3, 12.72, 12.72, 12.72, 12.3, 11.87, 11.87, 11.87, 11.37, 11.79, 11.79, 11.79, 12.21, 12.1, 12.1, 11.68, 11.68, 11.2, 10.56, 9.81, 8.68, 8.32, 7.31, 6.98, 6.32, 5.68, 5.68, 5.38, 5.38, 5.08, 5.08, 5.08, 5.08, 5.06, 5.35, 5.06, 5.06, 4.07, 5.69, 6.73, 7.41, 7.41, 7.76, 7.68, 8.38, 8.79, 9.4, 10.66, 11.64, 11.25, 11.6, 12.62, 19.46, 26.14, 25.64, 17.59, 13.97, 10.94, 10.0, 9.6, 10.5, 10.92, 11.56, 11.13, 11.13, 11.13, 11.13, 11.13, 11.21, 11.21, 11.88, 12.02, 12.07, 12.07, 12.48, 12.63, 11.96, 12.39, 12.21, 12.21, 11.92, 11.77, 11.77, 12.18, 12.74, 13.05, 13.05, 13.05, 13.47, 13.47, 13.47, 13.47, 13.47, 13.57, 13.15, 13.15, 12.72, 12.72, 12.3, 12.72, 12.72, 12.72, 12.3, 11.87, 11.87, 11.87, 11.61, 11.61, 12.04, 12.04, 12.04, 11.96, 11.68, 11.68, 11.55, 11.2, 10.99, 9.81, 8.68, 8.03, 7.31, 6.98, 6.32, 6.01, 5.68, 5.38, 5.08, 5.08, 5.08, 5.06, 5.06, 5.35, 5.35, 5.01, 5.38, 4.74, 4.71, 7.15, 7.81, 7.06, 7.06, 7.68, 8.38, 8.79, 8.42, 10.04, 10.66, 10.98, 10.58, 14.26, 18.05, 24.37, 27.1, 19.19, 13.46, 11.12, 9.9, 9.9, 10.32, 10.43, 11.03, 11.21, 11.21, 11.34, 11.34, 11.34, 11.44, 11.44, 11.57, 12.07, 11.62, 12.03, 11.93, 12.2, 11.96, 11.79, 12.21, 11.92, 11.77, 11.77, 11.77, 12.18, 13.05, 13.05, 13.05, 13.05, 13.05, 13.47, 13.47, 13.47, 13.47, 13.05, 13.15, 12.72, 12.72, 12.72, 12.3, 12.72, 12.72, 12.3, 12.53, 12.09, 12.09, 11.61, 11.61, 11.61, 12.04, 12.04, 11.96, 11.96, 11.96, 11.55, 11.55, 11.2, 10.99, 9.81, 8.68, 8.03, 7.68, 7.33, 6.64, 6.32, 6.01, 6.01, 5.69, 5.37, 5.37, 5.06, 5.35, 5.35, 5.65, 5.29, 5.05, 4.74, 4.71, 6.11, 6.32, 7.06, 6.95, 7.68, 8.38, 8.38, 8.12, 8.79, 9.4, 10.01, 11.28, 13.64, 16.39, 20.46, 27.04, 26.79, 14.4, 12.56, 10.32, 9.75, 10.18, 10.32, 10.85, 11.34, 11.34, 10.99, 10.99, 10.99, 11.44, 11.44, 11.57, 11.62, 11.62, 12.03, 11.93, 11.76, 11.54, 11.79, 11.79, 11.92, 11.92, 11.92, 11.92, 12.63, 12.63, 13.05, 13.05, 13.32, 13.05, 13.47, 13.47, 13.47, 13.05, 13.05, 13.05, 12.72, 12.72, 12.3, 12.3, 12.72, 12.72, 12.53, 12.09, 12.09, 11.61, 11.61, 11.8, 11.8, 12.24, 12.2, 11.96, 11.54, 11.45, 11.14, 11.55, 11.2, 10.99, 9.81, 9.05, 8.03, 7.68, 7.68, 7.02, 6.68, 6.01, 5.35, 5.35, 5.37, 5.35, 5.35, 5.35, 6.0, 6.0, 5.65, 4.71, 5.01, 4.75, 5.69, 5.24, 6.32, 7.06, 7.4, 7.68, 8.38, 8.42, 8.82, 8.79, 10.66, 11.64, 13.19, 16.46, 19.51, 24.98, 26.33, 18.97, 13.84, 11.55, 9.9, 9.9, 10.32, 10.73, 11.39, 10.99, 11.39, 11.39, 11.39, 11.13, 11.13, 11.18, 11.62, 11.58, 11.49, 11.33, 11.54, 11.37, 11.79, 11.5, 11.92, 11.92, 11.92, 12.21, 12.63, 13.32, 12.89, 13.32, 13.32, 13.32, 13.75, 13.47, 13.47, 13.05, 13.05, 12.63, 12.63, 12.72, 12.3, 12.3, 12.72, 12.96, 12.53, 12.04, 12.04, 11.8, 11.8, 11.8, 11.76, 11.76, 11.76, 11.54, 11.45, 11.45, 11.14, 11.14, 10.8, 10.6, 9.43, 9.05, 8.42, 8.42, 8.06, 7.41, 7.02, 6.32, 5.69, 5.69, 5.68, 5.68, 5.68, 6.0, 6.0, 6.0, 5.65, 5.36, 5.36, 5.43, 5.06, 5.43, 6.91, 6.79, 7.15, 7.41, 8.82, 9.03, 9.03, 9.42, 10.63, 11.6, 13.64, 16.03, 18.82, 23.22, 22.39, 21.85, 15.31, 12.79, 11.2, 10.0, 10.0, 10.4, 11.2, 11.2, 11.55, 11.55, 11.55, 11.13, 11.13, 11.18, 11.18, 11.14, 11.49, 11.33, 11.54, 11.37, 11.79, 11.5, 11.5, 12.21, 12.21, 12.21, 12.89, 12.89, 12.89, 12.89, 13.32, 13.32, 13.32, 13.75, 13.47, 13.05, 12.63, 12.63, 12.63, 12.21, 12.21, 12.21, 12.89, 12.89, 12.46, 12.04, 12.24, 11.8, 11.8, 11.76, 11.76, 11.76, 11.76, 11.71, 11.45, 11.03, 10.73, 10.73, 10.6, 10.2, 9.42, 9.42, 8.82, 8.82, 8.42, 7.76, 7.41, 6.73, 6.39, 6.39, 6.01, 5.68, 6.0, 6.0, 6.35, 6.35, 6.32, 5.95, 5.72, 5.43, 6.18, 6.18, 7.76, 6.55, 7.81, 7.82, 8.8, 9.36, 9.42, 10.0, 10.85, 12.04, 13.91, 15.77, 17.89, 20.27, 20.79, 21.62, 17.63, 12.79, 11.97, 11.97, 10.43, 10.63, 10.8, 11.5, 11.79, 11.79, 11.79, 11.18, 11.18, 11.18, 11.14, 11.05, 11.33, 11.11, 11.37, 11.37, 11.79, 11.79, 11.79, 12.21, 12.21, 12.53, 12.89, 12.89, 12.89, 12.89, 13.32, 13.32, 13.32, 13.32, 13.05, 13.05, 12.63, 12.63, 12.63, 12.21, 12.21, 12.21, 12.89, 12.46, 12.04, 12.04, 12.24, 11.8, 11.76, 11.33, 11.33, 11.76, 11.71, 11.28, 11.03, 10.6, 10.32, 10.32, 10.0, 9.81, 9.42, 9.03, 9.03, 8.82, 8.82, 8.18, 8.18, 7.06, 6.73, 6.7, 6.35, 6.35, 6.35, 6.35, 6.35, 6.7, 6.32, 5.95, 6.44, 6.44, 6.18, 6.44, 6.07, 5.86, 9.03, 8.48, 9.13, 9.36, 9.81, 10.0, 10.96, 11.92, 13.91, 15.1, 16.71, 17.67, 19.38, 19.93, 19.61, 14.71, 12.82, 12.82, 12.45, 11.81, 10.8, 11.62, 12.46, 12.46, 12.46, 11.18, 11.18, 11.18, 11.14, 11.05, 11.33, 11.11, 11.37, 11.37, 11.79, 11.79, 11.79, 12.21, 12.21, 12.53, 12.89, 12.89, 12.89, 12.89, 13.32, 13.32, 13.32, 13.32, 13.05, 13.05, 12.63, 12.63, 12.63, 12.21, 12.21, 12.21, 12.89, 12.46, 12.04, 12.04, 12.24, 11.8, 11.76, 11.33, 11.33, 11.76, 11.71, 11.28, 11.03, 10.6, 10.32, 10.32, 10.0, 9.81, 9.42, 9.03, 9.03, 8.82, 8.82, 8.18, 8.18, 7.06, 6.73, 6.7, 6.35, 6.35, 6.35, 6.35, 6.35, 6.7, 6.32, 5.95, 6.44, 6.44, 6.18, 6.44, 6.07, 5.86, 9.03, 8.48, 9.13, 9.42, 9.81, 10.0, 10.96, 11.92, 13.39, 14.58, 15.66, 16.31, 17.01, 18.6, 18.95, 16.99, 14.1, 12.65, 13.58, 13.51, 12.99, 12.21, 12.46, 12.46, 12.46]}, {"header": {"dx": 0.06612293990616946, "dy": 0.0552356325346848, "nx": 98, "ny": 59, "la1": 35.046912555036876, "la2": 31.78801023549047, "lo1": -121.43107172385933, "lo2": -114.95102361305473, "refTime": "2026041221", "parameterCategory": 1, "parameterNumber": 3}, "data": [3.57, 3.57, 3.57, 3.69, 3.69, 3.81, 3.81, 3.93, 3.22, 3.32, 3.12, 2.71, 2.37, 2.0, 1.84, 1.92, 2.19, 2.95, 2.6, 4.4, 4.4, 4.58, 3.98, 3.67, 3.97, 4.48, 5.6, 6.44, 5.99, 6.08, 6.31, 5.99, 5.78, 5.57, 4.3, 2.51, 0.8, -0.85, -2.99, -6.01, -6.7, -4.4, -1.91, 0.0, 6.4, 9.49, 12.33, 14.67, 14.06, 13.01, 11.6, 12.26, 12.26, 12.22, 11.47, 10.65, 10.05, 9.52, 8.68, 8.68, 8.68, 7.82, 7.45, 6.8, 7.82, 9.54, 10.87, 10.4, 9.67, 9.09, 9.87, 10.13, 10.08, 8.7, 8.46, 6.94, 5.86, 4.55, 3.57, 2.93, 2.82, 6.2, 2.6, 0.0, -2.23, -2.71, 0.0, 3.25, 7.06, 10.25, 10.94, 11.58, 11.6, 11.38, 11.77, 10.99, 9.69, 8.61, 2.72, 2.72, 2.72, 2.72, 2.81, 3.0, 3.0, 3.0, 3.32, 3.32, 3.25, 2.63, 2.28, 1.92, 1.44, 1.39, 2.02, 2.82, 3.07, 4.18, 4.75, 4.58, 4.58, 4.75, 3.39, 4.72, 4.9, 5.98, 6.48, 7.36, 8.78, 10.17, 9.06, 7.1, 5.0, 3.51, 1.75, 0.0, -8.49, -9.83, -9.66, -2.54, 0.0, 6.95, 11.06, 13.51, 15.02, 13.99, 13.01, 11.25, 11.6, 11.95, 11.88, 11.11, 10.37, 9.77, 9.25, 8.93, 8.68, 8.68, 8.68, 7.45, 7.23, 7.59, 9.73, 11.06, 11.06, 10.01, 9.89, 9.77, 10.05, 11.05, 10.13, 8.7, 7.15, 6.24, 5.15, 4.55, 3.57, 2.93, 2.82, 6.2, 2.6, 0.0, -2.23, -2.71, 0.0, 3.25, 7.06, 10.25, 10.94, 11.58, 11.6, 11.38, 11.77, 10.99, 9.69, 8.61, 2.72, 2.72, 2.72, 2.72, 2.81, 3.09, 3.09, 2.09, 2.31, 2.24, 2.06, 1.98, 2.16, 2.08, 1.92, 1.92, 2.19, 2.28, 3.21, 3.32, 3.39, 3.07, 4.4, 5.11, 5.28, 5.4, 5.86, 5.75, 6.15, 7.72, 9.8, 12.11, 13.23, 10.43, 7.26, 5.95, 6.14, 2.97, 0.0, -5.0, 0.0, 6.2, 10.69, 13.84, 15.11, 14.5, 14.5, 12.63, 10.92, 11.26, 12.3, 11.88, 11.17, 10.31, 9.66, 9.25, 9.25, 9.52, 9.52, 8.68, 8.43, 7.45, 7.59, 9.44, 11.25, 11.26, 10.75, 10.65, 10.83, 10.43, 10.19, 9.42, 8.97, 8.43, 6.24, 5.18, 4.27, 4.38, 3.36, 2.16, 1.91, 3.53, 0.0, -2.6, -2.95, -1.14, 3.25, 6.69, 9.17, 10.94, 11.97, 11.97, 11.77, 12.21, 11.12, 10.23, 8.61, 7.96, 2.72, 2.72, 2.81, 2.72, 1.89, 2.09, 2.15, 2.15, 2.31, 2.18, 2.06, 1.0, 1.09, 2.0, 2.0, 2.0, 1.16, 1.2, 2.28, 2.28, 2.1, 1.52, 1.91, 3.68, 5.86, 6.43, 6.7, 6.45, 6.98, 7.9, 10.41, 12.39, 12.56, 12.7, 9.8, 8.53, 9.77, 7.24, 6.45, 8.59, 12.11, 14.66, 14.88, 13.56, 12.9, 11.7, 10.54, 10.54, 11.26, 11.26, 10.81, 10.75, 10.75, 10.01, 9.89, 9.39, 9.25, 9.25, 9.25, 8.68, 8.43, 7.59, 9.44, 10.92, 11.34, 12.3, 12.5, 12.07, 11.64, 10.87, 9.8, 9.0, 7.99, 7.8, 5.65, 4.4, 3.36, 2.47, 3.28, 1.43, 0.0, 0.0, -3.53, -2.6, 0.0, 4.23, 8.15, 9.3, 10.73, 12.07, 12.65, 11.69, 11.38, 11.2, 10.41, 9.17, 7.96, 8.54, 2.72, 2.72, 1.89, 1.89, 1.89, 2.09, 2.15, 2.15, 1.17, 1.1, 1.04, 0.97, 1.16, 1.11, 1.07, 1.05, 1.05, 1.2, 0.0, 1.2, 1.77, 1.58, 1.76, 2.37, 5.54, 6.7, 8.01, 8.01, 8.85, 9.2, 10.05, 10.38, 9.97, 8.53, 9.8, 10.86, 12.0, 9.31, 9.61, 14.47, 16.22, 14.71, 11.76, 10.12, 10.43, 10.92, 11.25, 10.87, 10.87, 10.43, 10.43, 9.97, 9.97, 10.01, 9.89, 9.89, 9.39, 9.25, 9.25, 8.43, 7.98, 8.99, 10.58, 11.39, 12.65, 13.23, 13.18, 13.12, 12.54, 11.65, 10.59, 9.23, 8.39, 7.75, 6.01, 3.58, 1.83, 1.71, 1.34, 0.0, -6.45, -8.22, -5.0, -1.69, 5.75, 9.48, 10.8, 11.12, 11.77, 11.93, 11.21, 10.56, 11.2, 10.94, 9.42, 7.96, 7.44, 9.48, 1.83, 1.83, 1.89, 1.89, 1.89, 1.05, 1.08, 1.08, 1.17, 1.1, 1.0, 0.0, 0.0, 0.0, 0.0, 0.0, 0.0, 0.0, 0.0, 0.0, 0.0, 2.62, 4.1, 6.67, 7.82, 7.82, 8.01, 9.96, 10.41, 10.8, 9.04, 8.18, 6.58, 6.4, 8.91, 9.64, 9.48, 8.78, 10.7, 15.54, 14.94, 12.79, 10.63, 10.75, 11.25, 12.02, 12.36, 11.58, 10.75, 10.12, 8.87, 9.67, 9.67, 10.43, 10.31, 9.89, 9.89, 9.39, 8.43, 8.57, 8.72, 10.25, 12.03, 13.25, 14.46, 14.88, 13.46, 12.75, 13.28, 12.5, 11.78, 9.67, 9.47, 7.6, 6.64, 3.56, 2.15, 1.15, 0.0, -2.45, -9.6, -9.58, -5.52, 4.8, 10.27, 10.79, 11.6, 12.56, 12.82, 11.07, 10.38, 10.94, 11.33, 9.5, 7.78, 7.69, 9.13, 10.43, 1.83, 1.83, 1.83, 1.89, 0.98, 1.08, 1.08, 1.08, 1.17, 0.0, 0.0, 0.0, 0.0, 0.0, 0.0, 0.0, 0.0, 0.0, 0.0, 0.0, 0.0, 1.77, 3.58, 8.83, 10.43, 10.12, 10.75, 10.99, 10.91, 8.94, 8.38, 7.33, 6.14, 6.42, 8.75, 10.82, 10.12, 8.51, 8.73, 11.64, 14.03, 11.6, 11.28, 12.51, 12.16, 11.68, 12.19, 12.24, 10.75, 9.71, 10.12, 9.8, 10.12, 10.12, 10.01, 9.11, 9.11, 8.31, 7.74, 8.45, 10.03, 11.41, 13.11, 14.71, 14.85, 14.5, 13.04, 12.01, 11.59, 11.68, 10.91, 8.47, 7.5, 6.81, 4.93, 4.67, 2.65, 0.0, 0.0, -7.78, -10.38, -10.35, 0.0, 11.18, 11.13, 11.34, 12.79, 12.82, 11.42, 9.92, 9.26, 9.77, 10.37, 9.17, 7.11, 8.31, 10.43, 10.99, 1.77, 0.92, 0.95, 0.98, 1.01, 1.01, 0.0, 0.0, 0.0, 0.0, 0.0, 0.0, 0.0, 0.0, 0.0, 0.0, 0.0, 0.0, 0.0, 0.0, 0.0, 0.0, 0.0, 4.95, 8.68, 9.22, 10.75, 12.22, 12.27, 10.3, 9.42, 10.35, 11.62, 11.2, 8.82, 9.36, 7.43, 5.76, 6.76, 9.97, 12.71, 13.15, 13.39, 14.19, 12.87, 10.77, 10.58, 11.06, 12.46, 12.11, 9.48, 10.12, 10.12, 10.12, 9.24, 9.24, 8.45, 7.63, 7.78, 9.3, 10.0, 12.72, 14.33, 14.71, 14.64, 13.85, 12.23, 10.71, 9.37, 8.03, 7.11, 5.87, 4.19, 3.79, 2.88, 1.89, 1.34, 0.0, -5.15, -10.37, -10.04, -5.4, 11.46, 11.4, 11.34, 11.38, 11.69, 11.17, 9.48, 8.72, 7.64, 8.85, 9.17, 7.79, 8.58, 9.13, 10.94, 11.31, 0.92, 0.95, 0.95, 0.98, 1.01, 0.0, 0.0, 0.0, 0.0, 0.0, 0.0, -0.97, 0.0, 0.0, 0.0, 0.0, 0.0, 0.0, 0.0, 1.83, 2.63, 0.0, 0.0, 0.0, 4.65, 5.2, 6.95, 10.73, 9.77, 9.8, 10.82, 14.42, 14.42, 11.53, 8.53, 6.45, 3.39, 3.98, 5.29, 7.59, 11.2, 11.9, 10.99, 9.84, 9.16, 8.22, 10.09, 11.1, 12.76, 13.11, 12.57, 10.99, 10.87, 10.12, 9.36, 9.06, 8.3, 7.64, 7.72, 9.97, 11.61, 13.65, 13.52, 14.62, 14.0, 12.75, 11.37, 9.67, 7.4, 4.85, 3.16, 2.4, 0.92, 0.0, 0.0, 0.0, 0.0, -2.28, -7.69, -5.23, 11.06, 12.14, 11.84, 10.92, 10.6, 10.12, 9.69, 9.17, 8.01, 6.87, 6.48, 6.4, 7.02, 9.31, 9.8, 10.69, 10.99, 11.31, 0.95, 0.95, 0.98, 0.0, 0.0, 0.0, 0.0, 0.0, 0.0, -0.96, -0.97, -1.0, -1.0, -1.06, 0.0, 0.0, 0.0, 1.63, 2.35, 4.1, 2.45, 2.54, 2.72, 3.47, 6.2, 6.71, 6.32, 7.59, 10.43, 10.12, 11.17, 14.94, 13.03, 10.47, 6.7, 5.32, 3.82, 4.83, 8.22, 10.12, 9.76, 9.17, 7.72, 7.13, 7.13, 8.69, 8.53, 10.03, 12.05, 12.62, 12.3, 12.65, 11.94, 11.2, 10.87, 10.54, 10.12, 9.17, 9.67, 11.28, 13.88, 15.51, 16.69, 15.01, 14.37, 13.07, 10.86, 8.97, 6.6, 4.19, 1.73, 0.87, 0.0, 0.0, -1.02, -1.53, -3.14, 0.0, 0.0, 13.19, 15.93, 14.86, 12.3, 11.2, 10.48, 9.26, 8.85, 7.63, 6.53, 5.51, 5.4, 5.77, 8.01, 9.8, 10.43, 10.73, 11.21, 10.85, 0.0, 0.0, 0.0, 0.0, 0.0, 0.0, 0.0, 0.0, -0.99, -0.96, -0.96, -2.13, -2.04, -2.11, -1.42, 0.0, 0.0, 1.17, 3.18, 3.37, 3.12, 3.78, 5.37, 5.81, 5.48, 5.4, 6.17, 7.27, 10.12, 10.12, 8.38, 9.17, 8.22, 4.58, 3.68, 4.58, 6.2, 7.9, 8.22, 9.21, 8.78, 8.23, 7.41, 7.44, 7.59, 8.07, 8.35, 9.42, 10.37, 10.98, 12.98, 14.37, 14.73, 14.51, 15.38, 15.41, 15.8, 14.09, 11.21, 12.83, 16.78, 17.56, 16.75, 15.8, 15.39, 14.84, 13.48, 12.02, 9.8, 7.15, 5.81, 3.93, 2.24, 0.0, -3.93, -12.79, 0.0, 13.41, 13.99, 14.42, 13.99, 13.76, 12.86, 11.44, 10.65, 9.17, 8.37, 6.77, 5.4, 4.64, 4.72, 7.73, 9.84, 10.36, 10.3, 10.73, 11.16, 10.38, 0.0, 0.0, 0.0, 0.0, 0.0, 0.0, 0.0, -1.05, -0.99, -0.99, -0.99, -2.04, -3.22, -3.22, -3.02, -1.77, 0.0, 0.0, 0.98, 1.98, 1.88, 1.94, 2.21, 2.0, 4.24, 4.81, 6.44, 4.22, 5.1, 4.0, 4.4, 4.8, 4.23, 2.28, 1.14, 2.23, 4.6, 6.45, 6.7, 6.9, 7.95, 7.95, 8.24, 8.22, 7.27, 7.51, 10.09, 11.2, 10.61, 11.72, 13.02, 14.64, 16.79, 19.3, 19.18, 19.27, 18.31, 15.64, 13.35, 13.86, 17.35, 18.05, 16.89, 16.34, 16.41, 17.63, 18.84, 18.44, 17.1, 15.47, 13.8, 11.52, 7.59, 0.0, -13.41, -4.24, 12.72, 14.18, 13.34, 12.27, 12.65, 12.46, 12.71, 12.36, 11.83, 10.76, 8.83, 6.65, 5.43, 5.18, 6.4, 8.53, 9.88, 10.47, 10.03, 10.38, 10.38, 9.64, 0.0, 0.0, 0.0, 0.0, 0.0, 0.0, -0.98, -1.02, -1.02, -1.03, -2.04, -2.11, -3.22, -3.32, -3.42, -3.18, -1.83, -0.81, -0.74, 0.0, 0.0, 0.0, 0.0, 0.0, 1.08, 3.04, 4.81, 4.49, 3.53, 1.47, 1.93, 3.21, 2.42, 1.18, 1.14, 2.13, 2.83, 5.0, 5.0, 5.98, 7.18, 8.61, 7.95, 8.15, 8.43, 9.86, 10.88, 10.8, 10.8, 11.2, 10.23, 10.87, 12.98, 14.84, 15.91, 16.61, 16.6, 16.37, 13.41, 13.41, 16.54, 16.62, 15.52, 15.71, 17.08, 18.08, 20.55, 21.92, 21.59, 21.68, 19.41, 15.04, 10.47, 0.0, -8.22, 11.16, 15.34, 14.56, 12.3, 11.88, 11.17, 10.57, 11.06, 9.67, 11.22, 9.94, 7.98, 6.18, 5.5, 6.95, 9.42, 9.36, 9.42, 9.77, 9.3, 9.64, 9.64, 9.64, 0.0, 0.0, 0.0, 0.0, -0.98, -0.98, -0.98, -1.02, -2.02, -1.96, -2.11, -3.22, -3.32, -3.42, -3.52, -3.37, -3.07, -2.98, -2.72, -1.77, -1.77, -0.84, -0.92, -0.98, 0.0, 1.96, 3.57, 4.66, 3.81, 1.84, 1.69, 2.1, 1.64, 2.23, 3.25, 2.97, 3.49, 5.7, 6.31, 6.15, 6.98, 6.86, 7.9, 8.59, 8.18, 9.45, 8.72, 9.6, 9.7, 10.4, 9.86, 10.0, 10.84, 11.55, 11.35, 10.68, 12.79, 14.19, 14.67, 12.94, 14.3, 15.61, 15.27, 15.54, 16.05, 15.87, 16.46, 16.02, 17.99, 16.45, 17.24, 16.0, 8.55, 0.0, 11.18, 14.11, 15.59, 13.59, 13.07, 11.9, 10.76, 9.94, 8.61, 7.82, 8.61, 8.05, 5.81, 4.89, 5.6, 8.23, 10.12, 9.17, 8.64, 8.97, 8.22, 8.37, 9.17, 9.97, 0.0, 0.0, 0.0, -0.95, -0.95, -0.98, -0.98, -2.09, -2.02, -2.02, -2.18, -2.18, -2.43, -2.31, -3.62, -3.47, -3.37, -4.15, -4.03, -4.03, -2.8, -2.8, -2.8, -2.98, -1.04, 1.04, 3.79, 4.66, 3.93, 3.02, 2.13, 1.84, 3.07, 4.05, 4.05, 4.88, 6.69, 6.53, 6.71, 6.04, 6.59, 7.44, 7.9, 7.59, 7.81, 8.4, 9.04, 8.54, 8.37, 8.37, 8.73, 8.93, 9.75, 8.33, 7.89, 8.4, 7.9, 9.9, 13.14, 13.99, 12.27, 12.3, 13.15, 13.57, 14.4, 14.13, 14.11, 12.79, 12.0, 13.59, 13.45, 10.34, 6.51, 2.89, 11.99, 15.69, 15.5, 15.11, 13.17, 11.53, 10.86, 9.62, 7.93, 6.6, 4.24, 5.48, 5.14, 6.0, 7.96, 9.8, 10.12, 9.97, 8.6, 8.22, 8.07, 9.17, 10.85, 10.85, 0.0, -0.95, -0.95, -0.95, -0.95, -0.95, -1.89, -2.09, -2.09, -2.02, -2.18, -2.24, -2.43, -2.31, -3.62, -3.47, -3.37, -4.26, -4.26, -4.15, -4.03, -4.03, -4.03, -4.03, -1.07, 1.88, 3.58, 4.95, 4.05, 4.21, 3.36, 5.33, 5.4, 4.8, 5.98, 6.14, 7.18, 6.42, 6.5, 5.32, 6.17, 6.44, 7.59, 7.56, 7.81, 7.81, 7.81, 7.81, 7.56, 6.64, 6.95, 7.56, 7.56, 8.05, 7.15, 7.15, 7.81, 9.2, 11.6, 11.12, 9.65, 10.4, 10.09, 11.09, 11.03, 11.61, 10.0, 10.61, 11.1, 11.45, 10.2, 6.31, 3.22, 12.4, 14.74, 15.82, 15.45, 13.96, 12.46, 11.67, 10.6, 9.71, 7.99, 6.74, 3.76, 4.54, 5.8, 8.51, 10.12, 10.12, 9.8, 8.22, 7.73, 8.01, 8.12, 9.69, 11.03, 11.03, -0.95, -0.95, -0.95, -0.92, -1.89, -1.89, -1.89, -2.09, -2.09, -2.24, -2.24, -2.43, -2.43, -2.31, -3.52, -3.37, -4.3, -4.54, -4.26, -4.26, -4.15, -5.09, -5.09, -4.03, -0.95, 1.78, 4.67, 5.81, 5.62, 6.19, 7.88, 8.68, 9.44, 7.51, 6.05, 6.79, 6.7, 5.98, 5.7, 5.7, 6.7, 6.64, 7.56, 6.45, 8.18, 8.18, 8.18, 7.56, 6.3, 6.3, 6.01, 5.72, 6.01, 6.95, 6.95, 7.56, 8.18, 7.56, 8.15, 8.22, 8.22, 8.24, 8.38, 9.2, 9.96, 8.63, 8.8, 7.9, 9.17, 10.89, 8.14, 4.82, 5.69, 12.8, 17.26, 14.15, 13.66, 12.3, 10.81, 10.74, 9.63, 9.52, 8.87, 7.6, 8.53, 8.15, 7.24, 9.8, 10.12, 9.67, 9.36, 8.12, 8.42, 8.76, 9.48, 9.96, 10.98, 10.98, -0.95, -0.95, -1.89, -1.83, -1.83, -1.89, -1.89, -3.0, -3.09, -2.24, -2.43, -2.43, -2.43, -3.42, -3.42, -3.09, -4.18, -5.41, -5.56, -5.41, -5.26, -6.16, -5.99, -2.72, 0.0, 3.69, 7.0, 7.42, 7.63, 8.67, 10.08, 10.22, 9.61, 7.59, 5.56, 5.76, 4.83, 4.88, 5.7, 6.42, 6.64, 6.95, 6.64, 6.95, 7.56, 7.9, 6.95, 6.3, 5.72, 5.1, 4.66, 4.96, 4.96, 4.96, 6.64, 7.21, 8.18, 7.56, 7.27, 6.98, 7.27, 8.59, 8.93, 8.82, 8.82, 7.44, 6.99, 7.07, 6.98, 6.9, 6.5, 6.68, 9.07, 12.22, 12.78, 10.46, 9.05, 8.84, 8.44, 8.6, 7.99, 8.2, 8.48, 10.99, 11.03, 9.92, 9.48, 9.17, 9.48, 10.12, 9.67, 9.02, 8.42, 9.89, 10.99, 10.99, 10.24, 10.24, -0.95, -1.89, -1.83, -1.83, -1.83, -1.83, -2.81, -3.0, -2.24, -2.24, -2.43, -2.43, -3.58, -3.32, -3.32, -4.23, -4.21, -4.3, -4.3, -5.11, -5.99, -7.76, -6.6, -1.3, 3.58, 8.77, 7.51, 9.73, 9.67, 9.11, 9.25, 8.93, 8.11, 7.2, 6.05, 4.8, 3.75, 3.75, 4.6, 5.54, 5.46, 5.63, 5.7, 6.58, 6.87, 7.27, 6.3, 5.46, 4.88, 5.1, 4.88, 4.96, 6.01, 5.72, 7.56, 7.56, 8.18, 8.37, 8.15, 6.98, 7.59, 8.73, 9.7, 8.34, 8.34, 7.58, 6.79, 6.39, 5.64, 5.6, 5.56, 8.14, 9.06, 9.03, 6.8, 3.5, 1.65, 2.53, 3.86, 5.8, 5.86, 8.13, 10.15, 11.06, 11.58, 10.43, 9.06, 8.79, 9.48, 9.48, 10.12, 9.36, 9.92, 10.63, 11.6, 11.6, 10.54, 10.54, -1.89, -1.89, -1.83, -1.83, -2.72, -2.72, -3.0, -2.02, -2.24, -2.43, -2.43, -3.58, -3.58, -3.32, -4.34, -3.93, -4.05, -3.93, -4.12, -5.19, -7.4, -8.68, -5.46, 1.5, 8.11, 9.92, 9.92, 8.18, 8.61, 8.5, 8.16, 7.53, 6.85, 6.63, 6.45, 5.15, 4.58, 4.23, 3.7, 3.52, 3.52, 4.24, 3.75, 4.0, 5.13, 5.95, 5.46, 5.7, 5.1, 4.88, 4.66, 6.01, 6.64, 7.56, 6.73, 7.81, 8.73, 8.06, 7.68, 7.9, 8.24, 8.93, 9.32, 8.93, 7.82, 7.81, 8.18, 6.95, 5.52, 4.75, 4.85, 5.79, 5.72, 3.68, 0.0, -2.72, -4.21, -2.65, 1.1, 4.32, 6.72, 7.8, 9.23, 10.77, 9.73, 8.56, 8.01, 8.37, 8.79, 8.85, 9.48, 10.12, 10.22, 11.34, 11.2, 11.06, 10.01, 10.01, -1.83, -1.89, -1.83, -2.9, -2.9, -2.9, -3.0, -2.18, -2.24, -2.43, -3.58, -3.58, -3.32, -4.34, -4.47, -4.18, -4.18, -3.81, -3.56, -5.19, -6.31, -6.19, -1.23, 5.11, 8.06, 8.86, 7.71, 7.93, 8.16, 7.74, 7.04, 7.04, 7.04, 6.3, 6.63, 6.09, 4.98, 4.32, 4.23, 3.52, 3.7, 3.93, 4.12, 4.4, 5.38, 7.15, 6.3, 5.1, 5.1, 5.1, 6.3, 6.95, 7.27, 7.56, 7.9, 7.81, 8.43, 8.03, 7.59, 7.27, 8.55, 8.93, 8.93, 8.37, 8.43, 8.82, 8.42, 7.59, 7.36, 6.43, 6.35, 7.33, 6.54, 1.96, -5.04, -8.78, -8.78, -5.81, 0.0, 4.12, 8.56, 11.04, 9.42, 8.65, 7.73, 8.31, 8.87, 9.7, 10.01, 8.53, 9.17, 10.51, 10.84, 10.15, 10.43, 10.07, 9.66, 9.66, -1.83, -1.83, -2.9, -2.9, -2.9, -2.9, -2.11, -2.18, -2.24, -3.32, -3.32, -3.32, -4.34, -4.34, -4.05, -5.11, -5.11, -4.81, -4.38, -5.48, -5.41, -3.37, 1.11, 6.27, 8.39, 9.23, 8.39, 7.32, 7.32, 6.85, 7.04, 7.04, 7.04, 7.04, 7.04, 6.13, 5.91, 4.55, 4.15, 4.35, 4.2, 4.45, 4.45, 5.04, 5.59, 5.68, 5.98, 5.1, 5.98, 6.58, 7.27, 7.27, 7.27, 7.9, 8.18, 9.32, 9.58, 8.22, 6.42, 7.68, 8.4, 8.6, 8.05, 8.43, 9.05, 9.05, 8.42, 7.97, 8.22, 9.48, 10.43, 12.98, 12.21, 7.14, -12.07, -11.16, -7.6, -2.94, 2.16, 8.93, 9.2, 9.35, 9.87, 8.46, 8.65, 9.12, 11.25, 11.86, 11.06, 9.48, 8.85, 9.48, 10.43, 10.07, 9.37, 8.85, 8.72, 8.72, -1.83, -1.83, -1.96, -2.9, -1.96, -2.11, -2.11, -2.18, -3.32, -3.32, -3.42, -4.47, -4.34, -4.34, -4.96, -5.11, -5.11, -5.81, -5.31, -6.24, -5.98, -3.07, 0.92, 5.79, 8.16, 9.23, 8.84, 8.61, 7.4, 7.0, 6.35, 6.85, 6.85, 6.85, 6.85, 6.85, 5.96, 5.38, 4.66, 4.54, 4.16, 4.2, 4.45, 4.96, 5.0, 5.68, 5.98, 6.3, 6.58, 7.27, 7.27, 7.59, 7.27, 7.27, 8.93, 10.0, 9.08, 8.24, 6.98, 7.6, 8.67, 9.13, 9.03, 9.42, 9.81, 9.43, 9.04, 7.68, 8.73, 9.4, 9.76, 12.01, 8.8, 3.33, 10.73, 7.44, 6.44, 5.99, 7.6, 8.74, 8.2, 8.22, 7.59, 7.82, 10.08, 12.52, 13.11, 12.63, 12.81, 11.83, 9.8, 9.4, 9.37, 8.85, 8.85, 8.1, 8.1, 8.1, -1.83, -1.83, -1.96, -1.96, -2.11, -2.11, -2.11, -3.22, -3.32, -3.32, -4.47, -4.47, -4.47, -4.34, -5.11, -5.11, -5.99, -5.81, -5.48, -6.24, -6.62, -2.97, 1.78, 6.69, 8.01, 8.74, 8.61, 8.47, 7.8, 7.4, 7.2, 6.47, 6.66, 6.66, 6.35, 6.35, 6.35, 5.9, 4.84, 4.3, 4.84, 5.1, 5.15, 4.96, 5.1, 5.38, 6.24, 6.24, 6.98, 6.98, 7.59, 7.27, 6.58, 7.27, 8.73, 8.73, 7.9, 9.02, 9.27, 10.18, 8.29, 8.56, 9.36, 9.42, 9.05, 9.05, 8.73, 8.53, 7.68, 8.02, 6.59, 5.8, 7.68, 7.92, 6.22, 5.34, 4.55, 4.24, 3.47, 3.69, 4.42, 4.4, 5.02, 8.18, 12.29, 13.01, 13.01, 12.15, 12.33, 12.96, 11.22, 9.11, 7.85, 8.1, 8.1, 7.25, 7.85, 7.85, -1.96, -1.96, -1.96, -1.96, -2.04, -2.04, -3.12, -3.22, -3.22, -4.34, -4.47, -4.47, -4.47, -5.46, -5.11, -5.11, -5.81, -5.81, -6.6, -7.54, -6.62, -2.05, 4.67, 7.93, 8.51, 8.26, 8.39, 8.25, 7.6, 7.27, 7.4, 6.54, 6.66, 6.47, 6.17, 6.17, 6.17, 5.99, 5.33, 4.8, 4.84, 4.88, 5.08, 5.34, 5.36, 5.09, 4.45, 4.69, 4.44, 4.69, 4.96, 7.44, 7.59, 7.27, 8.03, 7.27, 7.59, 8.03, 10.16, 10.0, 10.46, 8.17, 8.21, 8.82, 8.42, 8.38, 8.31, 8.31, 8.31, 4.25, 2.44, 2.51, 8.12, 10.49, 8.71, 5.31, 2.54, 1.23, 0.0, 0.0, 0.0, 1.01, 5.99, 11.53, 12.0, 11.95, 12.3, 11.83, 12.01, 11.92, 11.68, 9.8, 7.58, 7.13, 7.11, 7.34, 7.69, 7.69, -1.96, -1.96, -1.9, -2.04, -2.04, -2.04, -3.12, -3.22, -4.34, -4.34, -4.34, -4.47, -5.46, -5.62, -5.26, -5.11, -4.96, -5.81, -6.24, -7.15, -5.81, 0.0, 7.23, 8.99, 8.74, 8.26, 7.6, 8.03, 7.27, 7.27, 7.6, 7.4, 7.04, 6.35, 6.17, 6.17, 6.17, 5.51, 5.28, 5.0, 4.84, 5.29, 5.72, 5.72, 5.72, 5.08, 4.66, 4.66, 4.2, 4.2, 4.87, 5.9, 7.73, 9.27, 8.93, 7.9, 7.59, 8.94, 10.8, 10.55, 8.94, 9.09, 7.28, 8.6, 8.82, 8.38, 8.31, 8.31, 6.57, 5.0, 3.42, 3.58, 6.84, 10.86, 11.55, 9.89, 4.47, 0.0, 0.0, 0.0, 0.0, 4.23, 11.63, 13.03, 12.72, 12.22, 11.88, 11.38, 10.92, 10.15, 10.86, 10.35, 7.6, 7.01, 7.19, 7.49, 7.44, 7.44, -1.9, -1.9, -1.9, -2.04, -2.04, -3.12, -3.12, -3.22, -4.34, -4.34, -5.3, -5.46, -5.46, -5.62, -5.26, -5.11, -4.96, -5.48, -6.24, -6.43, -2.88, 3.69, 8.39, 9.23, 8.99, 7.82, 7.6, 6.89, 7.08, 7.08, 7.4, 7.2, 7.2, 7.4, 6.72, 6.54, 5.67, 6.66, 6.8, 6.79, 6.16, 5.95, 5.7, 5.72, 5.32, 4.63, 4.42, 3.97, 3.97, 3.82, 5.09, 5.95, 6.51, 7.27, 7.9, 7.48, 9.08, 8.94, 9.03, 9.3, 9.08, 7.59, 8.93, 8.72, 9.48, 8.03, 8.31, 7.18, 6.57, 5.72, 4.21, 4.13, 5.01, 8.38, 11.14, 11.79, 9.02, 3.6, 2.34, 4.24, 5.6, 10.69, 13.77, 12.94, 11.79, 11.8, 11.38, 10.95, 10.18, 9.25, 9.02, 9.5, 9.23, 8.22, 8.31, 7.69, 7.69, 7.69, -1.9, -1.9, -1.9, -3.02, -3.02, -3.12, -3.12, -4.21, -4.34, -5.3, -5.3, -5.46, -5.46, -5.62, -5.26, -5.26, -4.66, -5.48, -6.43, -5.81, 0.0, 6.13, 8.03, 8.99, 8.39, 8.03, 7.2, 6.7, 6.7, 6.89, 7.2, 7.2, 7.2, 6.54, 6.54, 6.54, 6.54, 7.32, 7.67, 7.82, 6.87, 5.95, 5.7, 5.72, 5.32, 5.06, 4.63, 4.16, 4.16, 4.54, 5.8, 6.54, 6.93, 6.97, 6.97, 8.93, 9.08, 9.3, 9.05, 9.67, 8.93, 7.9, 8.42, 9.2, 9.05, 9.08, 7.48, 6.7, 5.76, 5.72, 4.98, 4.16, 3.39, 4.1, 6.42, 8.42, 10.17, 10.87, 9.0, 7.16, 5.95, 9.3, 10.92, 12.47, 10.81, 10.48, 10.37, 10.05, 9.52, 8.43, 8.68, 8.77, 10.17, 8.74, 8.68, 8.05, 8.05, 8.05, -2.81, -2.81, -3.02, -3.02, -3.02, -3.12, -4.08, -4.21, -5.3, -5.3, -5.3, -5.46, -5.46, -5.62, -5.26, -5.26, -4.81, -5.48, -5.64, -1.94, 3.58, 7.0, 8.16, 8.39, 8.03, 7.4, 6.89, 6.7, 6.7, 7.0, 7.2, 7.2, 6.54, 6.54, 6.54, 7.2, 7.53, 8.16, 8.29, 8.29, 7.34, 5.92, 5.7, 6.84, 6.84, 5.72, 4.63, 4.84, 6.04, 5.8, 6.9, 6.98, 6.69, 8.49, 9.17, 8.54, 10.23, 9.88, 9.67, 9.0, 8.93, 8.6, 9.65, 10.04, 9.0, 8.22, 8.12, 6.57, 4.92, 4.13, 4.81, 5.06, 4.85, 2.5, 1.64, 3.43, 7.45, 9.99, 10.94, 9.25, 11.25, 8.23, 9.48, 8.73, 9.1, 8.56, 7.58, 7.82, 7.67, 8.05, 7.82, 8.05, 7.82, 8.86, 8.53, 7.57, 7.57, 7.57, -2.81, -2.81, -3.02, -3.02, -3.02, -4.08, -4.08, -5.14, -5.3, -5.3, -5.3, -5.3, -5.46, -5.62, -5.26, -4.3, -4.03, -4.81, -2.8, 0.89, 5.67, 6.8, 7.32, 7.2, 7.2, 6.72, 6.54, 7.0, 7.0, 7.0, 7.0, 6.35, 6.66, 7.32, 7.32, 7.93, 8.16, 8.16, 7.93, 8.29, 7.82, 6.63, 5.7, 5.72, 5.72, 6.45, 5.86, 6.53, 6.9, 6.34, 6.34, 6.24, 7.46, 8.95, 9.1, 8.53, 7.86, 8.73, 10.01, 9.34, 8.6, 9.27, 9.3, 9.3, 8.6, 9.0, 9.62, 9.48, 5.9, 4.2, 5.14, 7.13, 8.2, 5.69, 0.82, 0.0, 4.3, 7.04, 9.41, 12.89, 14.24, 11.58, 11.17, 9.02, 6.87, 5.73, 4.4, 4.27, 5.02, 5.91, 6.24, 6.62, 6.66, 8.16, 7.74, 7.0, 6.81, 6.81, -3.02, -3.02, -3.02, -3.02, -3.94, -4.08, -4.97, -5.14, -5.3, -5.3, -5.3, -5.3, -5.46, -4.6, -4.3, -3.28, -3.07, -1.89, 0.0, 4.07, 6.17, 6.47, 6.47, 6.35, 6.54, 6.54, 6.54, 7.0, 6.17, 6.17, 6.66, 7.32, 7.11, 7.11, 7.71, 7.71, 7.93, 7.93, 7.93, 7.93, 8.06, 7.11, 6.2, 5.72, 5.32, 5.63, 6.76, 7.44, 6.63, 5.69, 5.52, 5.8, 6.62, 8.09, 8.49, 8.53, 8.19, 8.78, 8.73, 10.01, 9.0, 9.27, 9.27, 8.6, 9.0, 8.38, 8.65, 8.85, 8.22, 6.87, 6.18, 7.08, 8.86, 9.18, 4.37, 0.0, 1.6, 6.34, 7.2, 10.81, 12.73, 13.08, 8.7, 7.2, 4.41, 2.56, 0.92, 1.01, 3.0, 3.81, 4.66, 4.27, 5.06, 5.67, 6.72, 6.85, 7.4, 7.4, -3.02, -3.02, -3.94, -3.94, -3.94, -4.97, -4.97, -5.14, -5.3, -5.3, -5.3, -5.3, -5.3, -4.47, -3.28, -3.28, -1.94, 0.0, 2.57, 5.51, 6.47, 6.47, 6.66, 6.35, 6.35, 6.54, 6.54, 6.8, 7.4, 6.4, 7.45, 7.67, 7.71, 7.71, 7.48, 7.71, 7.71, 7.93, 7.93, 7.93, 8.29, 7.58, 6.16, 5.95, 5.29, 5.52, 5.92, 6.57, 5.33, 5.8, 6.31, 6.53, 6.36, 7.09, 8.22, 8.54, 9.08, 8.73, 8.73, 8.73, 9.62, 8.93, 8.65, 8.93, 9.0, 8.73, 7.68, 8.22, 8.24, 7.24, 6.42, 5.9, 5.55, 7.94, 8.34, 3.67, 5.01, 5.6, 6.94, 8.37, 10.08, 8.32, 6.97, 3.79, 1.88, 0.0, 0.0, 0.0, 2.98, 3.12, 3.68, 4.24, 5.02, 5.35, 6.54, 6.66, 7.4, 7.4, -3.94, -3.94, -3.94, -3.94, -4.81, -4.97, -4.97, -5.14, -5.3, -5.67, -5.67, -5.3, -5.3, -4.34, -2.21, -1.04, 0.0, 3.58, 4.95, 5.79, 6.66, 6.66, 6.66, 6.17, 6.35, 6.35, 6.35, 6.47, 6.09, 7.2, 7.01, 7.11, 7.32, 7.32, 7.11, 7.11, 7.11, 7.11, 7.32, 8.29, 8.29, 7.82, 6.63, 6.2, 5.52, 5.75, 5.2, 5.2, 4.84, 5.38, 6.1, 6.53, 6.81, 7.22, 8.21, 9.14, 9.37, 8.73, 8.73, 8.78, 8.78, 9.04, 10.41, 9.04, 9.0, 8.31, 7.68, 6.53, 6.97, 7.19, 7.12, 5.63, 3.19, 3.2, 6.89, 8.52, 6.37, 5.8, 5.62, 5.99, 6.1, 5.6, 3.51, 2.25, 1.17, 1.56, 4.3, 4.18, 5.81, 5.5, 4.81, 4.81, 5.38, 5.81, 5.72, 6.27, 6.85, 6.85, -3.81, -3.81, -3.94, -4.81, -4.81, -4.97, -4.97, -5.14, -5.5, -5.67, -5.67, -4.66, -4.34, -3.32, -1.01, 0.0, 2.72, 4.29, 5.06, 5.96, 6.66, 6.66, 6.66, 6.17, 6.17, 6.35, 6.66, 6.47, 6.47, 6.28, 6.9, 6.9, 6.9, 7.11, 7.11, 7.11, 7.11, 7.11, 7.67, 7.67, 8.29, 8.06, 7.11, 5.52, 5.29, 5.0, 4.66, 5.02, 4.84, 5.68, 6.53, 6.76, 6.93, 7.58, 8.21, 8.79, 9.14, 8.79, 8.73, 8.78, 10.23, 10.04, 9.66, 9.66, 8.38, 8.31, 7.97, 7.18, 6.71, 6.94, 7.9, 6.9, 3.41, 2.39, 5.03, 9.8, 8.38, 4.96, 3.69, 3.69, 4.12, 4.38, 3.56, 3.82, 6.47, 8.31, 10.75, 8.85, 7.66, 6.57, 5.8, 5.11, 5.2, 5.02, 5.1, 5.9, 6.54, 6.54, -3.81, -3.81, -4.81, -4.81, -4.81, -4.81, -4.97, -5.5, -5.5, -4.66, -4.66, -3.32, -3.32, -2.09, 0.0, 2.88, 4.29, 5.06, 5.79, 5.96, 6.66, 6.66, 6.66, 6.66, 6.47, 6.47, 6.66, 6.47, 6.47, 6.47, 6.28, 6.09, 6.09, 6.09, 6.28, 7.11, 7.11, 7.45, 7.45, 7.67, 7.67, 7.45, 6.79, 5.7, 4.6, 4.8, 4.66, 5.68, 5.68, 5.75, 6.5, 6.9, 7.28, 7.59, 8.49, 8.79, 8.79, 8.79, 8.49, 8.19, 8.65, 10.79, 9.66, 9.66, 9.66, 8.82, 7.59, 7.48, 6.31, 6.97, 7.73, 8.2, 5.67, 4.12, 4.96, 7.96, 9.19, 6.59, 4.54, 3.62, 4.6, 4.73, 5.5, 8.05, 10.39, 9.48, 9.8, 8.58, 7.89, 6.65, 5.67, 4.71, 4.13, 3.59, 3.64, 3.64, 4.71, 4.71, -4.65, -4.65, -4.81, -4.81, -4.81, -5.16, -5.33, -5.33, -4.52, -4.52, -3.58, -3.32, -2.09, 0.0, 0.98, 2.8, 5.34, 6.09, 6.09, 5.96, 6.66, 6.66, 6.66, 6.66, 6.66, 6.47, 6.47, 6.47, 6.28, 6.28, 6.6, 6.28, 6.09, 5.9, 6.09, 6.09, 6.6, 6.8, 7.45, 7.45, 7.45, 7.82, 7.36, 5.4, 4.84, 5.47, 5.68, 5.47, 6.53, 6.5, 6.63, 7.27, 7.27, 7.59, 8.15, 8.79, 8.79, 8.44, 8.15, 8.15, 8.65, 8.55, 10.41, 9.04, 9.4, 8.22, 7.59, 7.18, 7.48, 7.48, 7.96, 7.9, 6.93, 6.42, 5.69, 5.61, 7.8, 9.41, 7.64, 7.54, 7.77, 7.28, 6.9, 8.1, 9.48, 9.06, 9.06, 8.45, 7.49, 5.73, 4.61, 3.91, 3.17, 2.41, 2.2, 2.2, 3.64, 3.64, -4.65, -4.65, -4.81, -5.16, -5.16, -5.16, -4.38, -4.38, -4.52, -3.47, -3.22, -3.32, 0.0, 0.0, 1.95, 3.69, 5.34, 6.09, 6.09, 5.96, 5.96, 6.66, 6.66, 6.66, 6.47, 6.47, 6.47, 6.47, 6.28, 6.6, 6.6, 6.6, 6.09, 5.9, 5.9, 6.2, 6.4, 6.6, 6.6, 7.45, 7.82, 7.82, 7.13, 6.08, 5.54, 5.47, 5.47, 6.04, 6.29, 7.09, 6.63, 6.98, 7.58, 7.59, 8.15, 8.79, 8.79, 8.44, 8.15, 8.15, 8.93, 9.2, 10.55, 9.04, 9.0, 8.22, 7.27, 7.59, 7.18, 7.18, 7.36, 7.63, 7.88, 9.4, 7.33, 6.03, 5.73, 6.81, 8.6, 11.02, 9.63, 8.72, 7.93, 8.42, 8.85, 8.79, 8.29, 7.25, 6.2, 4.76, 3.1, 2.35, 1.53, 1.66, 1.61, 1.51, 0.79, 2.2, -4.65, -4.65, -4.65, -5.16, -5.16, -4.24, -4.74, -4.38, -4.52, -3.22, -3.22, -1.1, 0.0, 0.95, 2.89, 3.92, 5.64, 6.09, 6.09, 5.96, 6.66, 6.66, 6.66, 6.66, 6.66, 6.47, 6.47, 6.47, 6.6, 6.6, 6.4, 6.4, 6.4, 5.9, 5.9, 6.2, 6.2, 6.4, 6.6, 6.94, 7.59, 7.15, 7.25, 6.08, 5.52, 5.52, 6.04, 6.29, 7.36, 7.36, 7.51, 7.27, 7.28, 7.55, 7.55, 8.44, 8.19, 7.85, 7.81, 8.15, 8.55, 8.68, 10.55, 8.79, 8.38, 8.49, 8.49, 7.97, 7.9, 7.48, 7.48, 8.24, 6.85, 7.88, 9.87, 8.8, 3.9, 3.16, 6.0, 9.75, 10.52, 10.19, 9.44, 8.76, 8.79, 8.29, 7.11, 6.2, 4.76, 3.1, 2.35, 1.53, 1.57, 0.81, 0.86, 0.78, 0.86, 0.79, -4.65, -4.65, -4.65, -5.16, -4.24, -4.58, -4.58, -4.38, -3.47, -3.22, -1.1, 0.0, 1.02, 1.89, 2.89, 4.66, 5.64, 5.64, 6.09, 6.09, 6.66, 6.66, 6.66, 6.47, 6.47, 6.28, 6.28, 6.28, 6.6, 6.6, 6.4, 6.4, 6.4, 6.2, 6.2, 6.2, 6.2, 6.2, 6.73, 6.73, 6.94, 6.94, 6.65, 5.32, 5.86, 5.98, 7.25, 7.63, 7.9, 7.9, 8.09, 7.8, 7.58, 7.27, 7.23, 7.85, 7.85, 7.51, 8.08, 8.08, 8.55, 8.68, 7.23, 9.09, 8.49, 8.49, 8.03, 7.59, 8.31, 7.48, 7.48, 6.57, 5.8, 7.0, 11.61, 13.02, 9.99, 3.62, 5.81, 7.66, 8.4, 9.81, 10.63, 9.81, 7.79, 7.13, 6.09, 4.76, 3.1, 2.35, 1.53, 0.79, 0.76, 0.0, 0.0, 0.0, 1.08, 0.86, -4.65, -4.65, -4.99, -4.1, -4.24, -4.58, -4.58, -3.36, -3.36, -1.1, 0.0, 0.0, 1.02, 2.81, 3.8, 4.66, 5.64, 5.64, 6.09, 6.09, 6.8, 6.47, 6.66, 6.66, 6.47, 6.28, 6.28, 6.6, 6.6, 6.6, 6.4, 6.2, 6.2, 5.55, 5.55, 5.55, 5.55, 5.55, 6.52, 6.52, 6.73, 6.94, 6.88, 5.77, 5.32, 6.53, 7.74, 8.31, 8.05, 8.18, 8.18, 8.09, 7.85, 7.59, 6.95, 7.51, 7.51, 7.51, 7.51, 8.0, 8.55, 8.68, 10.55, 9.1, 9.1, 9.48, 7.68, 8.49, 7.59, 7.48, 7.36, 6.57, 5.86, 6.0, 8.93, 12.63, 15.87, 12.0, 7.4, 7.62, 8.57, 9.42, 10.15, 10.64, 7.15, 5.55, 4.04, 3.1, 1.58, 1.53, 0.79, 0.0, 0.0, 0.0, 0.0, 1.29, 3.14, 3.14, -3.81, -3.81, -4.1, -4.1, -4.43, -4.58, -3.53, -3.36, -2.28, 0.0, 0.0, 1.02, 2.02, 2.81, 3.69, 4.66, 5.48, 5.64, 6.24, 6.09, 6.8, 6.8, 6.47, 6.47, 6.47, 6.28, 6.6, 6.6, 6.6, 6.6, 6.4, 5.55, 5.55, 5.55, 5.38, 5.55, 5.55, 5.86, 5.86, 5.86, 6.05, 6.4, 6.88, 5.4, 5.2, 5.6, 6.73, 7.49, 7.01, 7.38, 7.9, 8.16, 7.55, 6.95, 6.64, 6.92, 7.17, 7.51, 7.51, 7.8, 8.27, 8.43, 7.76, 10.0, 9.6, 9.09, 8.49, 7.59, 7.27, 7.48, 6.57, 6.31, 5.86, 6.45, 7.13, 9.09, 13.49, 17.83, 14.45, 11.2, 9.42, 9.71, 10.08, 10.52, 6.81, 3.46, 2.55, 1.62, 0.77, 0.79, 0.0, 0.0, 0.0, 1.29, 3.56, 3.44, 3.44, 3.44, -4.65, -4.65, -4.1, -4.1, -4.43, -4.58, -3.53, -2.2, -1.15, 0.0, 0.0, 0.99, 2.02, 3.0, 3.93, 4.96, 5.81, 5.48, 6.24, 6.09, 6.09, 6.8, 6.8, 6.8, 6.6, 6.4, 6.6, 6.6, 6.6, 5.91, 5.73, 5.55, 5.55, 5.38, 5.38, 5.38, 5.55, 5.86, 5.86, 5.86, 6.4, 6.4, 6.2, 5.6, 5.4, 5.6, 6.65, 6.43, 6.53, 6.62, 6.81, 7.15, 6.95, 6.34, 6.64, 6.92, 7.21, 6.92, 7.44, 7.44, 7.72, 7.9, 8.15, 10.4, 9.6, 8.73, 8.49, 8.49, 7.13, 6.98, 6.31, 5.9, 5.76, 6.33, 6.31, 7.11, 9.63, 13.59, 17.58, 16.76, 13.51, 9.95, 10.08, 9.8, 6.91, 3.25, 1.66, 0.79, 0.0, 0.0, 0.0, 0.0, 1.43, 3.56, 3.44, 3.32, 3.32, 3.32, -4.49, -4.49, -4.1, -4.1, -4.43, -3.41, -3.53, -2.2, -1.11, 0.0, 0.0, 1.96, 3.0, 3.93, 4.81, 5.81, 5.81, 6.24, 6.24, 5.91, 6.09, 6.09, 6.8, 6.8, 6.8, 6.6, 6.6, 6.6, 5.91, 5.91, 5.73, 5.73, 5.55, 5.55, 4.71, 4.71, 4.98, 5.86, 5.86, 5.86, 6.4, 6.4, 6.2, 5.8, 5.4, 5.4, 5.6, 6.21, 6.62, 6.11, 6.3, 6.01, 6.01, 6.34, 6.64, 6.87, 6.87, 7.21, 7.21, 7.44, 7.35, 7.35, 7.76, 8.0, 9.86, 8.73, 7.9, 7.27, 7.18, 6.7, 7.27, 6.42, 6.57, 6.33, 6.31, 7.23, 7.91, 10.06, 12.7, 16.63, 18.05, 12.69, 9.6, 9.26, 7.06, 3.69, 1.61, 0.84, 0.0, 0.0, 0.0, 3.82, 4.1, 3.44, 1.71, 1.5, 1.5, 1.5, -4.81, -4.81, -3.96, -4.1, -4.43, -3.41, -2.4, -2.2, 0.0, 0.0, 1.06, 1.96, 3.0, 3.93, 4.81, 5.81, 5.81, 6.6, 6.24, 6.24, 5.91, 5.91, 6.09, 6.09, 5.91, 5.91, 5.91, 5.91, 5.91, 5.91, 5.73, 5.73, 4.87, 4.87, 4.71, 4.98, 4.98, 5.15, 5.15, 6.2, 5.46, 5.63, 5.46, 5.28, 5.93, 5.72, 5.93, 6.56, 6.33, 6.36, 6.58, 5.72, 5.72, 6.34, 6.32, 6.87, 6.87, 6.87, 6.87, 6.87, 7.35, 7.61, 7.61, 7.76, 7.61, 8.15, 7.59, 6.95, 6.83, 7.13, 6.42, 6.7, 6.57, 6.33, 6.65, 6.52, 7.32, 8.83, 10.59, 12.34, 14.87, 17.25, 11.0, 10.2, 8.98, 4.26, 2.54, 1.71, 1.08, 2.2, 6.7, 3.98, 1.91, 1.64, 0.0, 0.0, 0.0, 0.0, -4.81, -4.81, -3.96, -4.43, -4.43, -3.41, -2.32, -1.11, 0.0, 0.0, 2.11, 2.9, 4.08, 4.81, 4.81, 5.63, 6.4, 6.4, 6.05, 6.05, 6.24, 5.91, 5.91, 6.09, 6.09, 5.91, 5.73, 5.91, 5.91, 5.91, 5.91, 5.02, 5.02, 4.87, 4.71, 4.98, 4.98, 4.98, 5.15, 5.15, 5.46, 5.46, 5.46, 5.28, 6.15, 5.72, 5.93, 6.56, 6.56, 6.97, 6.44, 5.63, 5.72, 6.04, 6.32, 6.62, 6.87, 6.87, 6.87, 6.87, 7.15, 7.07, 7.23, 7.61, 7.61, 8.73, 7.9, 7.9, 7.59, 7.27, 6.7, 6.98, 6.45, 6.33, 6.43, 7.49, 7.82, 8.86, 10.6, 11.67, 11.65, 14.72, 14.3, 10.8, 9.63, 5.26, 3.18, 2.92, 3.73, 5.4, 2.82, 2.19, 0.0, 0.0, 0.0, 0.0, 0.0, 0.0, -4.81, -4.81, -5.18, -4.28, -4.43, -3.41, -2.32, -1.11, 0.0, 1.03, 2.11, 4.08, 4.08, 4.81, 5.63, 5.63, 6.4, 6.4, 6.05, 6.05, 6.24, 6.24, 6.09, 6.09, 6.09, 5.91, 5.73, 5.55, 6.05, 6.05, 5.18, 5.18, 5.02, 4.87, 4.98, 4.98, 4.98, 4.98, 4.98, 4.24, 4.51, 4.66, 5.46, 5.62, 5.43, 5.93, 6.15, 5.93, 6.94, 6.45, 6.44, 6.17, 6.01, 5.72, 6.32, 6.62, 6.28, 6.52, 6.87, 7.15, 6.79, 7.07, 7.07, 7.48, 7.23, 9.09, 8.73, 8.73, 7.59, 6.83, 6.7, 6.98, 6.84, 6.7, 7.12, 8.18, 7.93, 8.86, 10.47, 11.4, 11.54, 12.24, 15.15, 13.78, 9.96, 5.91, 5.96, 4.89, 5.4, 5.4, 0.0, 0.0, 0.0, 1.69, 1.52, 1.52, 1.52, 1.52, -4.81, -4.81, -5.18, -4.28, -4.28, -3.41, -2.32, 0.0, 0.0, 2.04, 3.12, 4.08, 4.66, 4.81, 5.63, 6.4, 6.4, 6.4, 6.05, 6.05, 6.05, 6.24, 6.24, 5.91, 5.91, 5.91, 6.05, 5.86, 5.15, 5.15, 5.15, 5.02, 5.02, 5.15, 4.98, 4.98, 4.98, 4.24, 4.24, 4.24, 4.51, 5.28, 5.81, 5.62, 5.43, 5.93, 6.15, 6.53, 6.7, 6.45, 6.44, 6.17, 6.3, 6.31, 6.28, 6.28, 6.28, 6.28, 6.57, 6.79, 6.79, 7.07, 6.7, 7.34, 7.34, 7.76, 8.42, 7.68, 7.68, 7.13, 7.13, 7.13, 6.98, 7.36, 8.01, 7.9, 8.56, 8.72, 10.19, 10.99, 10.72, 10.59, 13.13, 16.11, 13.68, 11.31, 6.6, 5.21, 5.54, 4.32, 0.0, 0.0, 0.0, 1.69, 1.45, 1.52, 1.52, 1.52, -5.18, -4.99, -5.18, -4.28, -3.29, -2.32, -1.08, 0.0, 1.03, 2.04, 3.12, 3.81, 4.81, 5.63, 5.81, 6.57, 6.2, 6.2, 5.46, 5.31, 5.31, 5.48, 5.48, 5.48, 5.48, 5.48, 5.31, 5.31, 5.15, 4.98, 4.98, 4.98, 5.15, 5.15, 4.98, 4.1, 4.1, 4.1, 4.1, 4.36, 4.51, 5.28, 5.62, 5.62, 5.43, 6.15, 6.15, 6.31, 6.7, 6.84, 6.31, 6.17, 5.9, 6.01, 6.28, 6.28, 6.28, 6.28, 6.57, 6.57, 6.57, 6.7, 6.7, 6.95, 6.95, 7.81, 7.76, 8.38, 8.38, 7.59, 7.59, 7.13, 6.83, 7.48, 7.36, 8.01, 8.66, 8.84, 8.86, 9.67, 10.03, 10.48, 10.72, 12.12, 13.49, 10.42, 7.2, 4.18, 4.23, 3.68, 1.91, 2.19, 1.76, 1.76, 1.52, 1.58, 1.58, 1.58, -4.99, -4.99, -4.48, -4.28, -3.29, -2.24, 0.0, 0.0, 2.04, 3.02, 4.08, 4.66, 4.81, 5.63, 5.81, 6.36, 5.28, 5.46, 5.63, 5.31, 5.31, 5.31, 5.48, 5.48, 5.48, 5.48, 5.31, 5.31, 5.15, 5.15, 4.98, 4.98, 4.24, 4.24, 4.1, 4.1, 4.1, 4.1, 4.1, 4.36, 4.36, 5.11, 5.62, 5.62, 5.43, 5.43, 5.93, 6.31, 6.08, 6.84, 6.31, 5.78, 6.23, 6.64, 6.32, 6.28, 6.28, 6.28, 6.23, 6.23, 6.23, 6.51, 6.51, 6.15, 6.79, 5.86, 7.15, 7.76, 8.03, 7.97, 7.9, 7.48, 7.13, 6.95, 7.18, 7.64, 7.9, 8.05, 8.06, 8.16, 9.09, 9.79, 9.66, 9.4, 14.75, 11.14, 6.31, 3.68, 2.82, 3.39, 3.53, 3.53, 1.76, 1.52, 1.58, 1.58, 1.58, 1.58, -5.4, -5.4, -4.48, -3.18, -2.24, -1.04, 0.0, 1.08, 1.97, 3.94, 4.97, 4.66, 5.63, 5.46, 5.62, 5.62, 5.46, 5.46, 5.63, 5.63, 5.31, 5.31, 5.48, 5.48, 5.48, 5.31, 5.31, 5.15, 5.15, 5.15, 4.24, 4.24, 4.24, 4.24, 4.1, 4.1, 4.1, 3.96, 4.21, 4.36, 4.36, 5.11, 5.43, 5.43, 5.43, 5.43, 5.25, 6.31, 6.48, 6.84, 6.31, 6.05, 6.51, 6.64, 6.32, 6.01, 5.95, 6.23, 6.23, 6.23, 6.23, 6.51, 6.15, 5.93, 5.93, 5.65, 6.79, 7.15, 7.76, 7.27, 7.59, 7.18, 7.18, 6.83, 6.83, 7.36, 7.38, 7.49, 7.59, 7.45, 8.74, 9.92, 9.54, 11.47, 11.51, 9.4, 5.01, 3.01, 1.64, 1.69, 2.95, 3.19, 1.64, 1.58, 1.39, 1.44, 1.44, 1.44, -4.48, -4.48, -3.47, -2.16, -1.13, 0.0, 0.0, 1.97, 2.92, 3.94, 4.66, 4.66, 5.46, 5.81, 5.62, 5.62, 5.46, 5.46, 5.46, 5.63, 5.63, 5.31, 5.48, 5.48, 5.48, 5.31, 5.31, 5.15, 5.15, 4.24, 4.24, 4.24, 4.24, 4.24, 4.1, 3.96, 3.96, 3.96, 4.21, 4.21, 4.36, 4.36, 4.65, 4.65, 4.65, 4.65, 5.25, 5.6, 6.48, 6.24, 6.31, 6.05, 6.58, 6.64, 6.32, 6.01, 6.31, 5.98, 6.23, 6.23, 5.88, 5.93, 5.93, 5.93, 5.35, 5.06, 5.09, 4.41, 6.32, 6.48, 6.53, 6.83, 6.42, 6.83, 6.83, 6.57, 6.94, 7.49, 7.93, 8.18, 8.99, 8.99, 10.75, 11.44, 9.99, 7.92, 5.37, 4.38, 4.39, 4.08, 3.39, 3.68, 2.82, 2.82, 2.42, 2.52, 2.52, 2.52, -3.47, -3.47, -3.18, -2.16, -1.0, 0.0, 1.04, 1.97, 2.92, 3.94, 4.51, 4.51, 5.28, 5.62, 5.43, 5.62, 5.46, 5.46, 5.46, 5.63, 4.81, 4.81, 4.81, 4.52, 4.52, 4.52, 4.38, 4.38, 4.38, 4.24, 4.1, 4.24, 4.24, 4.24, 4.1, 3.96, 3.96, 3.96, 4.06, 4.21, 4.21, 4.21, 4.36, 4.65, 4.65, 4.49, 4.49, 5.6, 6.72, 6.24, 6.31, 6.05, 6.58, 6.28, 6.32, 6.31, 6.31, 5.98, 5.98, 5.65, 5.65, 5.65, 5.65, 5.06, 4.75, 5.06, 5.06, 4.75, 5.69, 5.89, 5.76, 5.76, 6.04, 6.83, 6.7, 6.15, 6.84, 7.38, 8.31, 8.84, 9.11, 9.25, 11.0, 13.69, 11.65, 8.8, 7.98, 6.08, 5.0, 4.8, 3.82, 3.97, 3.47, 3.34, 3.34, 3.34, 3.34, 3.34, -3.06, -3.06, -2.16, -1.09, 0.0, 0.0, 0.96, 2.92, 3.68, 3.81, 4.36, 4.36, 5.11, 5.43, 5.43, 5.62, 5.46, 4.66, 4.66, 4.66, 4.81, 4.81, 4.81, 4.81, 4.81, 4.52, 4.38, 4.38, 4.24, 4.24, 4.1, 4.24, 4.24, 4.24, 4.1, 3.96, 3.96, 3.96, 3.32, 3.32, 3.44, 3.44, 3.44, 3.68, 4.49, 4.49, 4.81, 5.6, 5.99, 6.24, 6.31, 6.42, 6.58, 6.28, 6.32, 6.01, 6.31, 5.98, 5.65, 5.65, 5.65, 5.06, 5.06, 4.75, 4.75, 4.45, 4.71, 4.74, 4.12, 5.36, 5.21, 6.18, 6.18, 6.83, 6.7, 6.15, 5.9, 6.7, 7.38, 8.45, 8.95, 9.23, 9.85, 13.2, 12.75, 9.6, 9.61, 6.67, 4.13, 4.13, 4.3, 4.01, 3.68, 3.06, 3.06, 4.12, 4.12, 4.12, -2.08, -2.08, -1.05, 0.0, 0.0, 1.0, 1.84, 2.81, 3.68, 4.21, 4.36, 5.11, 5.43, 5.43, 5.43, 5.62, 4.66, 4.66, 4.66, 4.66, 4.66, 4.81, 4.81, 4.81, 4.81, 4.66, 4.38, 4.24, 4.24, 4.24, 4.1, 4.24, 4.24, 4.1, 3.34, 3.23, 3.23, 3.32, 3.32, 3.32, 3.44, 3.44, 3.68, 3.68, 3.68, 4.81, 4.81, 5.6, 5.99, 6.24, 6.31, 6.42, 6.14, 5.86, 6.64, 6.32, 6.01, 6.01, 5.69, 5.37, 5.37, 5.06, 4.75, 4.75, 4.39, 4.12, 4.42, 4.74, 4.12, 5.24, 6.32, 6.18, 6.95, 6.83, 6.7, 6.7, 6.31, 6.15, 6.84, 7.51, 8.05, 7.67, 8.2, 9.0, 12.88, 13.39, 9.0, 6.85, 4.3, 3.25, 3.39, 4.3, 4.17, 4.12, 4.12, 4.99, 4.99, 4.99, -2.08, -2.08, -1.05, 0.0, 0.0, 0.93, 1.84, 2.71, 3.55, 4.21, 4.21, 5.11, 5.11, 5.11, 5.11, 4.51, 4.51, 4.66, 4.66, 3.81, 4.66, 4.81, 4.81, 4.81, 4.66, 4.66, 4.66, 4.24, 4.24, 4.1, 4.1, 4.24, 4.24, 3.34, 3.23, 3.23, 3.32, 3.32, 2.53, 2.53, 2.62, 2.81, 3.68, 3.55, 3.82, 4.64, 4.81, 5.6, 5.99, 6.24, 5.76, 6.42, 6.14, 6.14, 6.24, 5.94, 6.01, 6.01, 6.01, 5.37, 4.75, 4.75, 4.75, 4.67, 4.67, 4.39, 4.12, 3.76, 4.07, 5.69, 6.11, 6.32, 6.18, 6.48, 6.83, 6.7, 5.9, 5.29, 6.15, 6.56, 6.65, 6.6, 5.76, 6.5, 9.77, 12.29, 12.65, 6.29, 4.81, 4.13, 4.13, 4.3, 4.47, 5.18, 4.99, 5.18, 5.18, 5.18, -1.01, -1.01, 0.0, 0.0, 0.97, 1.77, 2.61, 3.55, 4.06, 4.21, 4.93, 5.11, 5.11, 5.11, 4.36, 4.51, 3.81, 3.68, 3.81, 3.81, 3.81, 3.93, 4.81, 4.81, 4.66, 4.66, 4.51, 4.51, 4.24, 4.1, 4.1, 4.24, 3.46, 3.34, 3.44, 3.44, 2.53, 2.53, 2.53, 2.71, 2.71, 2.71, 3.55, 3.82, 3.82, 4.64, 4.64, 5.4, 5.78, 6.0, 5.76, 5.9, 5.9, 5.64, 5.76, 6.24, 6.32, 5.69, 5.69, 5.05, 5.05, 5.05, 4.67, 4.67, 4.67, 4.39, 4.02, 4.02, 4.65, 5.06, 4.65, 4.94, 5.1, 5.36, 5.76, 5.29, 4.92, 4.92, 5.14, 5.72, 5.8, 5.62, 5.61, 5.73, 8.08, 11.2, 13.11, 8.35, 6.4, 5.6, 5.0, 5.0, 5.2, 5.6, 5.6, 4.81, 4.81, 4.81, -1.01, -1.01, 0.0, 0.0, 0.86, 1.77, 2.61, 3.55, 4.06, 4.21, 4.93, 4.93, 4.36, 4.36, 4.36, 3.68, 3.68, 3.68, 3.68, 3.81, 3.81, 3.81, 3.93, 4.81, 4.66, 4.51, 4.51, 4.51, 4.36, 4.36, 4.36, 3.68, 3.68, 3.56, 3.44, 2.62, 2.53, 2.53, 2.71, 2.71, 2.71, 2.71, 2.93, 3.82, 3.68, 4.47, 4.47, 5.78, 5.57, 5.14, 5.14, 5.29, 5.29, 5.9, 6.04, 5.76, 5.89, 5.59, 5.59, 5.35, 5.05, 4.67, 4.67, 4.94, 4.94, 4.22, 3.97, 4.29, 4.65, 4.42, 4.42, 4.44, 4.68, 5.21, 4.34, 4.4, 4.25, 5.14, 5.0, 4.17, 4.81, 4.91, 4.98, 5.69, 8.29, 10.4, 12.61, 10.58, 6.4, 6.98, 6.98, 6.08, 5.72, 5.4, 4.93, 4.21, 4.21, 4.21, 0.0, 0.0, 0.0, 0.93, 1.7, 2.61, 3.42, 4.06, 4.06, 4.21, 4.21, 4.21, 4.36, 4.36, 3.34, 3.68, 3.68, 3.68, 3.68, 3.81, 3.81, 3.81, 3.81, 4.66, 4.66, 4.51, 4.51, 4.51, 4.36, 4.36, 4.36, 3.68, 3.56, 3.44, 3.44, 2.62, 2.53, 2.71, 2.61, 2.61, 2.71, 2.93, 2.82, 3.68, 3.53, 4.3, 4.3, 5.0, 5.35, 5.14, 4.92, 4.92, 5.29, 5.29, 5.46, 5.46, 6.18, 5.89, 5.21, 4.94, 4.94, 4.94, 4.94, 4.94, 4.46, 4.22, 3.97, 4.03, 4.03, 4.42, 4.03, 3.79, 3.26, 2.58, 2.83, 3.65, 4.25, 5.35, 5.0, 5.06, 5.11, 4.91, 5.56, 6.37, 7.57, 10.2, 12.81, 12.48, 9.36, 8.16, 8.16, 7.92, 6.36, 5.4, 4.65, 3.56, 3.56, 3.56, 0.0, 0.0, 0.0, 0.93, 1.7, 2.61, 3.42, 4.06, 4.06, 4.21, 4.21, 4.21, 4.36, 4.36, 3.34, 3.68, 3.68, 3.68, 3.68, 3.81, 3.81, 3.81, 3.81, 4.66, 4.66, 4.51, 4.51, 4.51, 4.36, 4.36, 4.36, 3.68, 3.56, 3.44, 3.44, 2.62, 2.53, 2.71, 2.61, 2.61, 2.71, 2.93, 2.82, 3.68, 3.53, 4.3, 4.3, 5.0, 5.35, 5.14, 4.92, 4.92, 5.29, 5.29, 5.46, 5.46, 6.18, 5.89, 5.21, 4.94, 4.94, 4.94, 4.94, 4.94, 4.46, 4.22, 3.97, 4.03, 4.03, 4.42, 4.03, 3.79, 3.26, 2.58, 2.83, 3.65, 5.14, 5.35, 5.0, 5.06, 5.11, 5.02, 5.67, 6.59, 7.34, 8.95, 12.4, 14.22, 12.36, 10.25, 9.2, 8.64, 7.88, 5.99, 4.36, 3.56, 3.56, 3.56]}]